Index (By Last Change)

Sets: 1012, Repos: 1014, Stores: 1013, Size: 66.8G, Issues: 85, Disabled: 4

Cycles: Current began 2021-01-26 04:31:01, Last began 2021-01-23 11:31:02, taking 2d16h59m59s

Mirror Set VCS Size Changed Updated Created
WireGuard for the Linux kernel. git git 2.2G 2021-01-27 11:31:10 2021-01-27 11:31:01 2020-06-09 00:39:34
Cross-platform userspace tools to configure WireGuard implementations git git 2.0M 2021-01-27 11:31:09 2021-01-27 11:31:01 2020-06-09 00:39:07
Cross-platform userspace implementation of WireGuard in Go. git git 4.5M 2021-01-27 11:31:05 2021-01-27 11:31:01 2020-06-09 00:38:28
Android client of WireGuard. git git 5.7M 2021-01-27 11:31:01 2021-01-27 11:31:01 2020-06-09 00:37:48
macOS and iOS client of WireGuard. git git 8.0M 2021-01-27 11:13:00 2021-01-27 11:11:01 2020-06-09 00:37:22
Windows client of WireGuard. git git 14.6M 2021-01-27 11:12:57 2021-01-27 11:11:01 2020-06-09 00:37:02
Detecting Logic Bugs in DBMS - sqlancer github github 21.0M 2021-01-27 11:11:01 2021-01-27 11:11:01 2020-06-08 23:52:39
pulldown-cmark - Raph Levien - raphlinus github github 28.2M 2021-01-27 10:35:11 2021-01-27 10:31:01 2020-06-08 23:25:42
Emoji images and names. - GitHub - github github github 168.0M 2021-01-27 09:54:05 2021-01-27 09:51:01 2020-06-08 22:48:46
A Haskell library for converting LaTeX math to MathML. - John MacFarlane - jgm github github 17.9M 2021-01-27 09:35:04 2021-01-27 09:31:01 2020-06-08 22:43:21
Templates for pandoc, tagged to release - John MacFarlane - jgm github github 12.8M 2021-01-27 09:32:20 2021-01-27 09:31:01 2020-06-08 22:38:18
Pure Haskell commonmark parsing library, designed to be flexible and extensible - John MacFarlane - jgm github github 5.8M 2021-01-27 09:12:12 2021-01-27 09:11:01 2020-06-08 22:33:43
Cryptographic Primitive Code Generation by Fiat - Programming Languages and Verification Group at MIT CSAIL - mit-plv github github 175.3M 2021-01-27 07:35:22 2021-01-27 07:11:01 2020-05-16 01:04:13
Verification system for effectful programs - FStarLang github github 1.7G 2021-01-27 07:12:59 2021-01-27 07:11:01 2020-05-16 00:43:39
Verified implementation of TLS 1.3 in F* - Project Everest - project-everest github github 103.3M 2021-01-27 07:11:01 2021-01-27 07:11:01 2020-05-16 00:40:25
everest - Project Everest - project-everest github github 35.0M 2021-01-27 06:56:24 2021-01-27 06:51:01 2020-05-16 00:39:38
tailscale-android - Tailscale - tailscale github github 6.8M 2021-01-27 06:55:53 2021-01-27 06:51:01 2020-05-16 00:26:45
Tailscale's temporary fork of https://git.zx2c4.com/wireguard-go - Tailscale - tailscale github github 6.2M 2021-01-27 06:55:39 2021-01-27 06:51:01 2020-05-16 00:26:40
CS360 Lecture_Notes - James Plank git git 8.6M 2021-01-27 05:51:09 2021-01-27 05:51:02 2020-04-17 18:39:02
A modern, portable, easy to use crypto library. - Frank Denis - jedisct1 git git 16.4M 2021-01-27 04:56:29 2021-01-27 04:51:02 2020-03-20 00:00:06
Universal markup converter - John MacFarlane - jgm git git 74.6M 2021-01-27 04:56:23 2021-01-27 04:51:02 2020-03-19 23:59:33
GNSS-SDR, an open source GNSS software defined receiver - GNSS-SDR - gnss-sdr git git 87.4M 2021-01-27 04:56:18 2021-01-27 04:51:02 2020-03-19 23:57:24
VLSI Detailed Routing Tool Developed by CUHK - CUHK EDA - cuhk-eda github github 10.9M 2021-01-27 03:11:01 2021-01-27 03:11:01 2019-12-10 19:46:57
Sail RISC-V model - REMS - rems-project github github 98.4M 2021-01-27 02:52:35 2021-01-27 02:51:01 2019-12-10 19:45:50
Compiler - Digital Mars - DigitalMars github github 30.6M 2021-01-27 01:52:30 2021-01-27 01:51:01 2019-11-18 02:01:32
Extremely fast non-cryptographic hash algorithm - Yann Collet - Cyan4973 github github 219.6M 2021-01-27 00:16:27 2021-01-27 00:11:01 2019-04-30 21:27:47
Assembler toolkit based on AsmJit - AsmJit - asmjit github github 3.2M 2021-01-27 00:15:41 2021-01-27 00:11:01 2019-04-30 21:27:24
Complete x86/x64 JIT and AOT Assembler for C++ - AsmJit - asmjit github github 65.1M 2021-01-27 00:12:55 2021-01-27 00:11:01 2019-04-30 21:21:26
gSLICr: Real-time super-pixel segmentation - Carl Yuheng Ren - carlren github github 40.5M 2021-01-26 22:11:25 2021-01-26 22:11:01 2019-03-01 21:15:17
PicoRV32 - A Size-Optimized RISC-V CPU - Clifford Wolf - cliffordwolf github github 55.1M 2021-01-26 21:32:32 2021-01-26 21:31:01 2019-02-26 18:55:50
The CImg Library is a small, open-source, and modern C++ toolkit for image processing - David Tschumperlé - dtschump github github 421.5M 2021-01-26 21:12:39 2021-01-26 21:11:01 2019-02-26 18:45:01
Community contributions to the G'MIC software - David Tschumperlé - dtschump github github 185.5M 2021-01-26 21:11:57 2021-01-26 21:11:01 2019-02-26 18:43:39
Protocol Buffers - Google git git 74.3M 2021-01-26 20:31:39 2021-01-26 20:31:01 2019-02-07 07:42:10
Modern audio compression for the internet. - Xiph.Org Foundation - xiph github github 1.1G 2021-01-26 19:57:12 2021-01-26 19:51:01 2019-02-04 01:22:37
Display images in an ANSI terminal@gh - hopey-dishwasher github github 3.9M 2021-01-26 18:53:10 2021-01-26 18:51:01 2019-01-25 01:04:50
Tesseract OCR Engine - tesseract-ocr git git 80.4M 2021-01-26 18:26:34 2021-01-26 17:31:01 2019-01-24 00:25:03
List of single-file C/C++ libraries. - Sean Barrett - nothings github github 22.4M 2021-01-26 18:21:04 2021-01-26 17:31:01 2019-01-24 00:05:34
A brief computer graphics / rendering course - Dmitry V. Sokolov - ssloy github github 335.8M 2021-01-26 17:11:59 2021-01-26 17:11:01 2019-01-23 18:31:01
Open Source Computer Vision Library - OpenCV - opencv git git 495.5M 2021-01-26 17:11:12 2021-01-26 17:11:01 2019-01-23 01:00:19
Repository for OpenCV's extra modules - OpenCV - opencv git git 150.2M 2021-01-26 17:11:01 2021-01-26 17:11:01 2019-01-23 00:58:06
OpenCV extra data - OpenCV - opencv git git 1.1G 2021-01-26 16:53:11 2021-01-26 16:51:01 2019-01-23 00:39:34
Improved JPEG encoder. - Mozilla - mozilla github github 180.0M 2021-01-26 16:38:57 2021-01-26 16:31:02 2019-01-20 21:31:01
Official repository of the OpenJPEG project - Université catholique de Louvain - uclouvain github github 548.6M 2021-01-26 15:53:23 2021-01-26 15:51:01 2019-01-20 20:31:01
In-place Parallel Super Scalar Samplesort (IPS⁴o) - Sascha Witt - SaschaWitt github github 2.0M 2021-01-26 15:36:36 2021-01-26 15:31:01 2019-01-20 17:51:01
Leptonica is an open source library containing software that is broadly useful for image processing and image analysis applications. The official github repository for Leptonica is: danbloomberg/leptonica. See leptonica.org for more documentation and recent releases. - Dan Bloomberg - DanBloomberg github github 177.4M 2021-01-26 15:21:42 2021-01-26 15:11:02 2019-01-23 04:51:01
A better compressed bitset in Java - Roaring bitmaps: A better compressed bitset - RoaringBitmap github github 297.5M 2021-01-26 15:12:26 2021-01-26 15:11:02 2019-01-23 04:31:01
Optimized compression packages - Klaus Post - klauspost github github 119.0M 2021-01-26 13:54:05 2021-01-26 13:51:01 2019-01-23 01:31:02
open Multi-View Stereo reconstruction library - cDc - cdcseacave github github 143.6M 2021-01-26 12:41:23 2021-01-26 12:31:01 2019-01-21 18:51:01
COLMAP - Structure-from-Motion and Multi-View Stereo - colmap github github 236.3M 2021-01-26 12:34:48 2021-01-26 12:31:01 2019-01-21 18:31:01
An open source library for multiview geometry and structure from motion - Chris Sweeney - sweeneychris github github 96.4M 2021-01-26 12:31:01 2021-01-26 12:31:01 2019-01-21 18:11:01
A Local Adaptive Thresholding framework for image binarization written in C++. Implementing: Otsu, Bernsen, Niblack, Sauvola, Wolf, Gatos, NICK, Su, T.R. Singh, WAN, and Shafait. - Brandon M. Petty - brandonmpetty github github 9.5M 2021-01-26 11:51:01 2021-01-26 11:51:01 2019-01-21 15:31:01
3D Reconstruction Software - AliceVision - alicevision github github 870.0M 2021-01-26 09:37:44 2021-01-26 09:31:01 2019-01-21 10:51:02
An open library of computer vision algorithms - VLFeat.org - vlfeat github github 71.8M 2021-01-26 09:14:09 2021-01-26 09:11:01 2019-01-21 10:11:01
A RTI library for creating and visualizing Reflectance Transformation Imaging - Visual Computing Lab - ISTI - CNR - cnr-isti-vclab github github 24.5M 2021-01-26 09:12:08 2021-01-26 09:11:01 2019-01-21 09:11:01
A curated list of papers & ressources linked to 3D reconstruction from images. - openMVG - openMVG github github 35.9M 2021-01-26 08:51:01 2021-01-26 08:51:01 2019-01-21 08:31:01
RISC-V instruction set simulator built for education - Keyhan Vakil - kvakil github github 249.9M 2021-01-26 07:55:28 2021-01-26 07:51:01 2019-01-21 06:31:01
Chisel 3 HDL - freechipsproject github github 29.1M 2021-01-26 07:36:39 2021-01-26 07:31:01 2019-01-21 05:51:01
Generator Bootcamp Material: Learn Chisel the Right Way - freechipsproject github github 79.8M 2021-01-26 07:34:16 2021-01-26 07:31:01 2019-01-21 05:31:01
Provides various testers for chisel users - freechipsproject github github 65.7M 2021-01-26 07:31:03 2021-01-26 07:31:01 2019-01-21 05:31:01
Provides dot visualizations of chisel/firrtl circuits - freechipsproject github github 9.8M 2021-01-26 07:12:19 2021-01-26 07:11:01 2019-01-21 04:51:02
Roaring bitmaps in C (and C++) - Roaring bitmaps: A better compressed bitset - RoaringBitmap github github 89.9M 2021-01-26 06:54:00 2021-01-26 06:51:01 2019-01-21 04:31:02
Common SV components - pulp-platform github github 22.6M 2021-01-26 06:51:30 2021-01-26 06:51:01 2019-01-21 03:31:01
RISC-V Tools (GNU Toolchain, ISA Simulator, Tests) - RISC-V - riscv github github 691.9M 2021-01-26 06:35:15 2021-01-26 06:31:01 2019-01-21 03:11:01
Ariane is a 6-stage RISC-V CPU capable of booting Linux - pulp-platform github github 139.2M 2021-01-26 06:34:54 2021-01-26 06:31:01 2019-01-21 03:11:01
This is the top-level project for the PULPissimo Platform. It instantiates a PULPissimo open-source system with a PULP SoC domain, but no cluster - pulp-platform github github 99.3M 2021-01-26 06:31:01 2021-01-26 06:31:01 2019-01-21 02:31:01
Git Hub cli - Ingy dot Net github github 28.1M 2021-01-26 04:51:02 2021-01-26 04:51:02 2019-01-20 22:31:01
Python QR Code image generator - Lincoln Loop - lincolnloop github github 4.2M 2021-01-26 04:34:38 2021-01-26 04:31:01 2021-01-24 22:06:01
2021-01-26 04:31:01 Start Of Current Cycle
Home of the Advanced Interface Bus (AIB) specification. - CHIPS Alliance - chipsalliance github github 21.5M 2021-01-26 04:04:16 2021-01-26 03:51:01 2021-01-05 21:22:40
Chisel 3: A Modern Hardware Design Language - CHIPS Alliance - chipsalliance github github 244.8M 2021-01-26 03:59:26 2021-01-26 03:51:01 2021-01-05 21:22:26
Flexible Intermediate Representation for RTL - CHIPS Alliance - chipsalliance github github 246.4M 2021-01-26 03:55:40 2021-01-26 03:51:01 2021-01-05 21:22:14
OpenTitan: Open source silicon root of trust - lowRISC - lowRISC github github 118.2M 2021-01-26 03:53:20 2021-01-26 03:51:01 2021-01-05 21:22:06
Ibex is a small 32 bit RISC-V CPU core, previously known as zero-riscy. - lowRISC - lowRISC github github 62.5M 2021-01-26 03:51:01 2021-01-26 03:51:01 2021-01-05 21:22:03
Algorithm to texture 3D reconstructions from multi-view stereo images - Nils Moehrle - nmoehrle github github 28.5M 2021-01-26 03:38:53 2021-01-26 03:31:01 2021-01-05 21:21:54
Open source Structure-from-Motion pipeline - mapillary github github 223.1M 2021-01-26 03:35:23 2021-01-26 03:31:01 2021-01-05 21:21:27
User-friendly, commercial grade software for processing aerial imagery. 🛩 - OpenDroneMap - OpenDroneMap github github 1.2G 2021-01-26 03:33:13 2021-01-26 03:31:01 2021-01-05 21:21:09
Source code used to validate the correctness of BoofCV - Peter Abeles - lessthanoptimal github github 85.0M 2021-01-26 03:15:43 2021-01-26 03:11:01 2021-01-05 21:20:41
A fast and easy to use linear algebra library written in Java for dense, sparse, real, and complex matrices. - Peter Abeles - lessthanoptimal github github 18.5M 2021-01-26 03:13:43 2021-01-26 03:11:01 2021-01-05 21:20:38
Java based geometry library for transforming, fitting, and intersecting geometric shapes and motion models. - Peter Abeles - lessthanoptimal github github 5.7M 2021-01-26 03:13:00 2021-01-26 03:11:01 2021-01-05 21:20:28
Fast computer vision library for SFM, calibration, fiducials, tracking, image processing, and more. - Peter Abeles - lessthanoptimal github github 94.7M 2021-01-26 03:11:01 2021-01-26 03:11:01 2021-01-05 21:20:16
a clean C library for processing UTF-8 Unicode data - JuliaStrings github github 17.1M 2021-01-26 02:55:53 2021-01-26 02:51:01 2020-12-23 20:12:12
A library for parsing, editing, and saving EXIF data - libexif Project - libexif github github 18.6M 2021-01-26 02:53:52 2021-01-26 02:51:01 2020-12-23 20:08:58
⚡High Performance DICOM Medical Image Parser in Go. - Suyash Kumar - suyashkumar git git 31.3M 2021-01-26 01:15:58 2021-01-26 01:11:02 2020-12-04 20:37:31
riscv-compliance - RISC-V - riscv github github 169.6M 2021-01-26 01:13:47 2021-01-26 01:11:02 2020-12-04 20:12:59
Official GeoTools repository - GeoTools - geotools git git 341.1M 2021-01-25 23:12:48 2021-01-25 23:11:01 2020-11-24 18:18:05
OpenBLAS is an optimized BLAS library based on GotoBLAS2 1.13 BSD version. - Zhang Xianyi - xianyi git git 32.2M 2021-01-25 23:12:44 2021-01-25 23:11:01 2020-11-24 18:17:44
Python Sorted Container Types: Sorted List, Sorted Dict, and Sorted Set - Grant Jenks - grantjenks github github 91.7M 2021-01-25 23:11:17 2021-01-25 23:11:01 2020-11-24 18:06:20
Public repository of the QuickJS Javascript Engine - bellard github github 58.7M 2021-01-25 21:33:20 2021-01-25 21:31:01 2020-10-26 16:45:02
Datasette plugin that authenticates users against GitHub - Simon Willison - simonw github github 2.2M 2021-01-25 21:11:01 2021-01-25 21:11:01 2020-10-06 18:00:16
Datasette plugin that shows a map for any data with latitude/longitude columns - Simon Willison - simonw github github 2.1M 2021-01-25 20:11:01 2021-01-25 20:11:01 2020-10-06 17:59:22
Datasette plugin that adds a .atom output format - Simon Willison - simonw github github 328K 2021-01-25 19:16:36 2021-01-25 19:11:01 2020-10-06 17:57:34
An open source multi-tool for exploring and publishing data - Simon Willison - simonw github github 179.7M 2021-01-25 19:11:46 2021-01-25 19:11:01 2020-10-06 17:52:03
Python CLI utility and library for manipulating SQLite databases - Simon Willison - simonw github github 15.8M 2021-01-25 19:11:01 2021-01-25 19:11:01 2020-10-06 17:51:34
Competitive Programming Algorithms (in English) - e-maxx-eng github github 31.3M 2021-01-25 18:32:12 2021-01-25 18:31:02 2020-10-06 07:46:26
opensouce RISC-V implemented from scratch in one night! - Darklife - darklife github github 102.6M 2021-01-25 16:51:01 2021-01-25 16:51:01 2020-07-23 20:15:59
Naïve Bayesian Text Classifier on Redis - Justine Tunney - jart github github 2.1M 2021-01-25 16:37:01 2021-01-25 16:31:01 2020-07-06 19:18:24
An EXIF-based photo assistant, organizer, manager and workflow automation tool. - Jaisen Mathai - jmathai github github 53.4M 2021-01-25 16:34:52 2021-01-25 16:31:01 2020-07-06 19:15:32
OCRmyPDF adds an OCR text layer to scanned PDF files, allowing them to be searched - jbarlow83 - jbarlow83 github github 158.1M 2021-01-25 16:32:12 2021-01-25 16:31:01 2020-07-06 19:06:52
The CORE-V CVA6 is an Application class 6-stage RISC-V CPU capable of booting Linux - OpenHW Group - openhwgroup git git 36.7M 2021-01-25 16:11:10 2021-01-25 16:11:01 2020-07-06 19:03:11
OpenPaperwork - paperwork - Personal document manager git git 28.4M 2021-01-25 15:59:43 2021-01-25 15:51:01 2020-07-06 18:47:08
A packaged and flexible version of the CRAFT text detector and Keras CRNN recognition model. - Fausto Morales - faustomorales github github 12.7M 2021-01-25 15:54:31 2021-01-25 15:51:01 2020-07-06 18:40:53
Trained models with support for legacy and LSTM OCR engine - tesseract-ocr github github 3.4G 2021-01-25 15:51:03 2021-01-25 15:51:01 2020-07-06 18:39:45
Documentation for the OpenHW Group's set of CORE-V RISC-V cores - OpenHW Group - openhwgroup github github 64.0M 2021-01-25 15:32:15 2021-01-25 15:31:01 2020-07-06 17:46:10
Functional verification project for the CORE-V family of RISC-V cores. - OpenHW Group - openhwgroup github github 170.6M 2021-01-25 15:31:01 2021-01-25 15:31:01 2020-07-06 17:45:14
CV32E40P is an in-order 4-stage RISC-V RV32IMFCXpulp CPU based on RI5CY from PULP-Platform - OpenHW Group - openhwgroup github github 96.9M 2021-01-25 15:13:42 2021-01-25 15:11:01 2020-07-06 17:40:47
OCR-D profiler-based post-correction of historical OCR - CIS OCR Group - cisocrgroup github github 98.2M 2021-01-25 15:11:01 2021-01-25 15:11:01 2020-07-06 17:30:01
A font editor written in Rust. - linebender github github 5.7M 2021-01-24 21:11:09 2021-01-24 21:11:01 2020-06-17 02:41:29
Repo for an ideational book on 2D graphics, plus tools to make images - linebender github github 880K 2021-01-24 21:11:07 2021-01-24 21:11:01 2020-06-17 02:41:27
A Rust library for low-level text layout. - linebender github github 4.2M 2021-01-24 20:56:05 2021-01-24 20:51:01 2020-06-17 02:40:34
An abstraction for 2D graphics. - linebender github github 17.2M 2021-01-24 20:53:43 2021-01-24 20:51:01 2020-06-17 02:36:49
A fast, practical GPU rasterizer for fonts and vector graphics - Servo - servo github github 65.1M 2021-01-24 20:51:01 2021-01-24 20:51:01 2020-06-17 02:31:46
Automatic verification of LLVM optimizations - AliveToolkit github github 49.0M 2021-01-24 20:33:49 2021-01-24 20:31:01 2020-06-15 07:35:33
ABC: System for Sequential Logic Synthesis and Formal Verification - berkeley-abc github github 2.5G 2021-01-24 20:31:01 2021-01-24 20:31:01 2020-06-15 07:32:10
Scots Army Knife for electronics - Glasgow Embedded - GlasgowEmbedded github github 92.7M 2021-01-24 19:11:11 2021-01-24 19:11:01 2020-06-15 07:04:49
GitHub's fork of cmark, a CommonMark parsing and rendering library and program in C - GitHub - github github github 20.4M 2021-01-24 15:52:43 2021-01-27 10:31:01 2020-06-08 23:19:55
libharu - free PDF library - libharu - libharu github github 73.3M 2021-01-24 15:31:34 2021-01-27 10:11:01 2020-06-08 23:09:27
Source files for pandoc's website - John MacFarlane - jgm github github 10.5M 2021-01-24 14:54:20 2021-01-27 09:31:01 2020-06-08 22:42:41
A Haskell syntax highlighting library with tokenizers derived from KDE syntax highlighting descriptions - John MacFarlane - jgm github github 12.7M 2021-01-24 14:32:06 2021-01-27 09:11:01 2020-06-08 22:34:02
libheif is a ISO/IEC 23008-12:2017 HEIF file format decoder and encoder. - struktur AG - strukturag github github 96.9M 2021-01-24 09:57:11 2021-01-27 04:31:01 2020-02-28 05:04:17
CommonMark parser and renderer in JavaScript - CommonMark - commonmark github github 23.5M 2021-01-24 09:31:01 2021-01-27 04:11:01 2020-01-31 06:04:25
A performant, parallel, probabilistic, random acyclic-graph, low-latency, perfect hash generation library. - Trent Nelson - tpn github github 19.0M 2021-01-24 07:11:29 2021-01-27 01:51:01 2019-10-16 08:42:21
libMarpa convenience wrappers - jddurand github github 5.6M 2021-01-24 07:11:01 2021-01-27 01:51:01 2019-10-16 08:41:50
:snowflake: Visual editor for open FPGA boards - FPGAwars - FPGAwars github github 152.8M 2021-01-24 03:11:31 2021-01-26 21:51:01 2019-02-26 19:00:32
mesh-testsuite - PLASMA - plasma-umass github github 48.8M 2021-01-24 02:13:36 2021-01-26 20:51:01 2019-02-26 18:42:13
Modern Robotics: Mechanics, Planning, and Control Code Library --- The primary purpose of the provided software is to be easy to read and educational, reinforcing the concepts in the book. The code is optimized neither for efficiency nor robustness. - NxRLab - NxRLab github github 308.3M 2021-01-24 02:11:01 2021-01-26 20:51:01 2019-02-11 21:54:09
Small Processing Unit 32: A compact RV32I CPU written in Verilog - maikmerten github github 5.9M 2021-01-24 01:51:10 2021-01-26 20:31:01 2019-02-04 15:41:35
Free Lossless Audio Codec - Xiph.Org Foundation - xiph github github 50.6M 2021-01-24 01:13:56 2021-01-26 19:31:01 2019-02-03 21:17:16
The hottest High Dynamic Range (HDR) Library - Visual Computing Lab - ISTI - CNR - cnr-isti-vclab github github 102.4M 2021-01-23 16:11:01 2021-01-26 09:11:01 2019-01-21 09:11:01
ATTEND The VCGlib is a C++, templated, no dependency, library for manipulation, processing and cleaning of triangle meshes - Visual Computing Lab - ISTI - CNR - cnr-isti-vclab github github 79.7M 2021-01-23 15:51:38 2021-01-26 08:51:01 2019-01-21 09:11:01
A large scale non-linear optimization library - ceres-solver github github 229.7M 2021-01-23 15:31:23 2021-01-26 08:31:01 2019-01-21 08:11:02
ATTEND The Standard Ebooks toolset for producing our ebook files - Standard Ebooks - standardebooks github github 68.7M 2021-01-23 12:51:36 2021-01-26 05:51:01 2019-01-21 01:51:01
2021-01-23 11:31:02 Start Of Last Cycle
Simple, modern libpng alternative - Randy - randy408 github github 5.0M 2021-01-23 10:11:53 2021-01-26 02:51:01 2020-12-23 20:11:22
riscv-code-size-reduction - RISC-V - riscv github github 5.2M 2021-01-23 08:31:30 2021-01-26 01:11:02 2020-12-04 20:17:29
Working draft of the proposed RISC-V V vector extension - RISC-V - riscv github github 22.0M 2021-01-23 08:31:01 2021-01-26 01:11:02 2020-12-04 20:09:33
EOS icons - SVG - MIT git git 95.5M 2021-01-23 01:31:13 2021-01-25 18:11:01 2020-09-23 06:13:31
SCARV: a side-channel hardened RISC-V platform - SCARV - scarv (soc) github github 6.0M 2021-01-23 01:11:18 2021-01-25 17:51:01 2020-09-10 18:03:55
SCARV: a side-channel hardened RISC-V platform - SCARV - scarv (cpu) github github 3.6M 2021-01-23 01:11:15 2021-01-25 17:51:01 2020-09-10 18:03:47
Python module (C extension and plain python) implementing Aho-Corasick algorithm - Wojciech Muła - WojciechMula github github 11.7M 2021-01-23 00:11:41 2021-01-25 16:51:01 2020-07-24 22:43:30
A data-first Rust-native UI design toolkit. - xi-editor github github 44.2M 2021-01-22 21:11:08 2021-01-24 21:11:01 2020-06-17 02:41:53
AXI support for Migen/MiSoC - Alain Péteut - peteut github github 1.4M 2021-01-22 19:31:22 2021-01-24 19:31:02 2020-06-15 07:13:30
A refreshed Python toolbox for building complex digital hardware - M-Labs - m-labs github github 14.8M 2021-01-22 19:31:12 2021-01-24 19:31:02 2020-06-15 07:12:18
ATTEND Powerful and easy-to-use embedded GUI with many widgets, advanced visual effects (opacity, antialiasing, animations) and low memory requirements (16K RAM, 64K Flash). - LittlevGL - littlevgl github github 171.4M 2021-01-22 10:17:25 2021-01-27 04:31:01 2020-02-28 05:18:09
High Efficiency Image File Format - Nokia Technologies - nokiatech github github 94.2M 2021-01-22 10:16:44 2021-01-27 04:31:01 2020-02-28 05:07:20
ATTEND The Missing Semester of Your CS Education 📚@gh - missing-semester github github 47.3M 2021-01-22 09:51:41 2021-01-27 04:11:01 2020-02-28 04:34:24
Libeflip web frontend - Libreflip - libreflip github github 2.7M 2021-01-22 07:51:20 2021-01-27 02:11:01 2019-12-04 05:15:37
ATTEND An immutable radix tree implementation in Golang - HashiCorp - hashicorp github github 5.1M 2021-01-22 03:33:51 2021-01-26 21:51:01 2019-02-26 19:10:45
Command-line tools for creating and playing Ogg Vorbis files. - Xiph.Org Foundation - xiph github github 10.2M 2021-01-22 01:31:09 2021-01-26 19:31:01 2019-02-03 20:27:22
OpenCV - 3rdparty - OpenCV - opencv git git 1.5G 2021-01-21 22:51:14 2021-01-26 16:51:01 2019-01-23 00:21:31
ExifTool meta information reader/writer - ExifTool by Phil Harvey - exiftool github github 171.5M 2021-01-21 22:32:52 2021-01-26 16:31:02 2019-01-20 21:31:01
ATTEND Extremely Fast Compression algorithm - lz4 - lz4 github github 356.2M 2021-01-21 22:12:24 2021-01-26 15:51:01 2019-01-20 20:51:01
Wirehair : O(N) Fountain Code for Large Data - Chris Taylor - catid github github 1.6G 2021-01-21 21:11:02 2021-01-26 14:51:01 2019-01-23 03:11:01
OpenGV is a collection of computer vision methods for solving geometric vision problems. - Laurent Kneip - laurentkneip github github 49.0M 2021-01-21 15:38:54 2021-01-26 09:31:01 2019-01-21 11:31:01
Chisel/Firrtl execution engine - freechipsproject github github 39.0M 2021-01-21 12:33:07 2021-01-26 07:11:01 2019-01-21 05:11:01
Deploys Datasette with the latest version of every plugin - Simon Willison - simonw github github 628K 2021-01-21 00:51:12 2021-01-25 20:11:01 2020-10-06 17:59:29
Datasette plugin that replaces any GeoJSON column values with a Leaflet map. - Simon Willison - simonw github github 1.3M 2021-01-21 00:32:03 2021-01-25 19:51:01 2020-10-06 17:59:09
Type-safe YAML parser and validator. - Colm O'Connor - crdoconnor github github 5.6M 2021-01-20 23:31:09 2021-01-25 18:51:01 2020-10-06 07:56:10
SCARV-related document preparation assets - SCARV - scarv github github 576K 2021-01-20 21:51:31 2021-01-25 17:11:01 2020-09-09 20:50:54
The FFV1 lossless video codec specification - FFmpeg github github 5.3M 2021-01-20 19:32:53 2021-01-25 15:11:01 2020-07-06 17:34:14
A Python toolbox for building complex digital hardware - M-Labs - m-labs git git 4.6M 2021-01-20 17:34:15 2021-01-24 20:31:01 2020-06-15 07:58:42
High-speed pseudorandom function (reference code) - Jean-Philippe Aumasson - veorq github github 2.9M 2021-01-20 13:03:07 2021-01-27 10:31:01 2020-06-08 23:45:53
KreMLin is a tool for extracting low-level F* programs to readable C code - FStarLang github github 55.6M 2021-01-20 09:51:43 2021-01-27 07:11:01 2020-05-16 00:42:26
C library for Convolutional codes and Reed-Solomon - Quiet Modem Project - quiet github github 6.7M 2021-01-20 08:13:23 2021-01-27 05:31:01 2020-04-16 18:38:54
A memory allocator that automatically reduces the memory footprint of C/C++ applications. - PLASMA - plasma-umass github github 31.3M 2021-01-19 22:58:20 2021-01-26 20:51:01 2019-02-26 18:42:19
MinHash, LSH, LSH Forest, Weighted MinHash, HyperLogLog, HyperLogLog++ - Eric Zhu - ekzhu github github 19.9M 2021-01-19 19:49:11 2021-01-26 17:31:01 2019-01-24 00:11:27
ATTEND stb single-file public domain libraries for C/C++ - Sean Barrett - nothings github github 1.2G 2021-01-19 14:53:40 2021-01-26 17:31:01 2019-01-23 23:16:19
Public release of the Image Matching Benchmark: https://image-matching-challenge.github.io - UBC Computer Vision Group - ubc-vision github github 17.3M 2021-01-18 22:57:54 2021-01-26 03:11:01 2021-01-05 21:21:02
Cookiecutter template for creating Datasette plugins - Simon Willison - simonw github github 460K 2021-01-18 15:32:16 2021-01-25 19:51:01 2020-10-06 17:59:17
The CIS language aware OCR document error profiler - CIS OCR Group - cisocrgroup github github 5.8M 2021-01-18 10:31:07 2021-01-25 15:11:01 2020-07-06 17:30:45
Open Source Logic Analyzers and data Syphons - Piotr Esden-Tempski - esden github github 2.0M 2021-01-18 07:31:01 2021-01-24 19:31:02 2020-06-15 07:06:43
Multi-platform nightly builds of open source FPGA tools - Open Tool Forge - open-tool-forge github github 142.9M 2021-01-18 06:11:18 2021-01-24 18:11:01 2020-06-15 06:55:50
Documenting Lattice 28nm FPGA - Dave Shah - daveshah1 github github 7.1M 2021-01-17 19:31:43 2021-01-27 03:11:01 2019-12-12 19:03:10
:seedling: Open source ecosystem for open FPGA boards - FPGAwars - fpgawars github github 123.8M 2021-01-17 14:14:21 2021-01-26 21:51:01 2019-02-26 19:02:55
Portable C implementation of Ed25519, a high-speed high-security public-key signature system. - Orson Peters - orlp github github 14.9M 2021-01-17 04:12:54 2021-01-26 15:31:01 2019-01-20 14:11:01
A Small C Compiler (8cc) - Rui Ueyama - rui314 github github 40.8M 2021-01-16 20:54:45 2021-01-26 09:31:01 2019-01-21 10:51:02
Technology dependent cells instantiated in the design for generic process (simulation, FPGA) - pulp-platform github github 3.9M 2021-01-16 17:33:20 2021-01-26 06:31:01 2019-01-21 02:51:01
RISC-V Instruction Set Manual - RISC-V - riscv github github 152.8M 2021-01-16 16:51:02 2021-01-26 06:11:02 2019-01-21 01:51:01
riscv-code-speed-optimization - RISC-V - riscv github github 1.5M 2021-01-16 11:53:38 2021-01-26 01:11:02 2020-12-04 20:12:56
Working Draft of the RISC-V Processor Trace Specification - RISC-V - riscv github github 27.8M 2021-01-16 11:53:11 2021-01-26 01:11:02 2020-12-04 20:12:11
Gonum is a set of numeric libraries for the Go programming language. It contains libraries for matrices, statistics, optimization, and more - gonum git git 18.0M 2021-01-16 08:31:01 2021-01-25 21:51:02 2020-10-28 05:51:47
Research: Performance of heaps, starting with Min-Max Heap - skarupke github github 428K 2021-01-16 04:51:07 2021-01-25 18:11:01 2020-09-23 06:12:55
Parametric floating-point unit with support for standard RISC-V formats and operations as well as transprecision formats - pulp-platform github github 19.4M 2021-01-16 02:13:46 2021-01-25 15:31:01 2020-07-06 17:46:55
A high performance and small footprint system-on-chip based on Migen - M-Labs - m-labs github github 17.7M 2021-01-15 22:51:10 2021-01-24 19:31:02 2020-06-15 07:10:39
Cross-platform high-performance userspace implementation of WireGuard in Rust. git git 1.9M 2021-01-15 20:11:04 2021-01-27 11:31:01 2020-06-09 00:38:14
official implementations of the BLAKE3 cryptographic hash function - BLAKE3 team - BLAKE3-team github github 19.9M 2021-01-15 19:33:10 2021-01-27 10:51:01 2020-06-08 23:49:19
RSD: RISC-V Out-of-Order Superscalar Processor - rsd-devel github github 12.5M 2021-01-15 17:34:26 2021-01-27 08:51:01 2020-06-08 22:31:38
Lua library for conversion between markup formats - John MacFarlane - jgm github github 10.3M 2021-01-15 09:53:32 2021-01-27 02:11:01 2019-12-04 05:14:51
halide.github.com - Halide - halide github github 118.9M 2021-01-15 07:11:01 2021-01-26 23:31:01 2019-04-30 20:26:23
Open-source C++ library for the SpaceWire and RMAP protocols - Takayuki Yuasa - yuasatakayuki github github 18.5M 2021-01-15 06:31:01 2021-01-26 22:51:01 2019-03-06 05:12:09
ATTEND Modern video compression for the internet - Xiph.Org Foundation - xiph github github 98.8M 2021-01-15 03:19:14 2021-01-26 19:31:01 2019-02-03 22:08:30
Image similarity comparison simulating human perception (multiscale SSIM in Rust) - Kornel - kornelski github github 17.2M 2021-01-14 17:00:33 2021-01-26 16:31:02 2019-01-20 20:51:01
Reed-Solomon Erasure Coding in Go - Klaus Post - klauspost github github 20.8M 2021-01-14 15:13:55 2021-01-26 14:51:01 2019-01-23 03:51:01
A Python Implementation of Simhash Algorithm - Leon - leonsim github github 7.7M 2021-01-14 11:11:45 2021-01-26 12:11:01 2019-01-21 18:11:01
Segment image regions into seperate image files - CIS OCR Group - cisocrgroup github github 916K 2021-01-13 16:31:36 2021-01-25 18:11:01 2020-10-06 07:45:10
nextpnr portable FPGA place and route tool - Yosys Headquarters - YosysHQ github github 41.6M 2021-01-13 10:31:01 2021-01-24 19:51:02 2020-06-15 07:13:50
ATTEND Free Lossless Image Format - FLIF - FLIF-hub github github 56.8M 2021-01-13 00:17:06 2021-01-27 04:11:01 2020-02-28 04:28:09
VLSI Global Routing Tool Developed by CUHK - CUHK EDA - cuhk-eda github github 37.3M 2021-01-12 23:11:22 2021-01-27 03:11:01 2019-12-10 19:47:10
Convert your ascii diagram scribbles into happy little SVG - Jovansonlee Cesar - ivanceras github github 10.8M 2021-01-12 22:11:22 2021-01-27 02:11:01 2019-12-04 05:12:36
Collect variants of the Minisat SAT solver (minisat.se), and modifications that have been proposed in SAT competitions - conp-solutions github github 1.3M 2021-01-12 21:13:18 2021-01-27 01:11:01 2019-10-12 23:08:50
A generic parser and tool package for the BTOR2 format.@gh - Boolector github github 4.4M 2021-01-12 21:11:46 2021-01-27 01:11:01 2019-10-12 23:07:47
GPGPU microprocessor architecture - Jeff Bush - jbush001 github github 114.1M 2021-01-12 20:32:44 2021-01-27 00:31:01 2019-04-30 21:37:25
Samples that use only Blend2D library - Blend2D - blend2d github github 1.9M 2021-01-12 20:11:01 2021-01-27 00:11:01 2019-04-30 21:20:24
Project IceStorm - Lattice iCE40 FPGAs Bitstream Documentaion (Reverse Engineered) - Clifford Wolf - cliffordwolf github github 14.2M 2021-01-12 17:31:38 2021-01-26 21:31:01 2019-02-26 18:52:48
The archivist's web crawler: WARC output, dashboard for all crawls, dynamic ignore patterns - ludios - ludios github github 9.1M 2021-01-12 06:11:53 2021-01-26 13:51:01 2019-01-22 05:31:01
Rocket Chip Generator - freechipsproject github github 442.9M 2021-01-11 22:11:01 2021-01-26 06:51:01 2019-01-21 03:31:01
Portable OpenStreetMap - offline mapping and field enumeration (log issues here) - POSM - posm github github 4.8M 2021-01-11 18:50:35 2021-01-26 03:31:01 2021-01-05 21:21:49
A list of resources about deep learning solutions on 3D shape processing - Subeesh Vasu - subeeshvasu github github 1.6M 2021-01-11 12:33:02 2021-01-25 21:31:01 2020-10-23 21:08:44
Convert CSV files into a SQLite database - Simon Willison - simonw github github 4.4M 2021-01-11 10:51:01 2021-01-25 19:51:01 2020-10-06 17:57:58
Revengineered ancient PDP-11 CPUs, originals and clones - 1801BM1 github github 32.4M 2021-01-10 19:31:07 2021-01-27 06:11:01 2020-05-02 06:55:24
Sail architecture definition language - REMS - rems-project github github 88.4M 2021-01-10 15:11:33 2021-01-27 02:51:01 2019-12-10 19:44:51
CaDiCaL SAT Solver - Armin Biere - arminbiere github github 11.7M 2021-01-10 13:31:58 2021-01-27 01:11:01 2019-10-12 23:08:03
A Satisfiability Modulo Theories (SMT) solver for the theories of fixed-size bit-vectors, arrays and uninterpreted functions.@gh - Boolector github github 38.7M 2021-01-10 13:31:01 2021-01-27 01:11:01 2019-10-12 23:07:00
ATTEND Detection of CCTag markers made up of concentric circles. - AliceVision - alicevision github github 94.8M 2021-01-10 12:15:31 2021-01-26 23:51:01 2019-04-30 21:18:14
ScanTailor Advanced is the version that merges the features of the ScanTailor Featured and ScanTailor Enhanced versions, brings new ones and fixes. - 4lex4 github github 19.8M 2021-01-09 17:52:26 2021-01-26 08:31:01 2019-01-21 07:51:01
Misspelled Words In Context - Jakub Wilk - jwilk github github 1.2M 2021-01-09 13:51:02 2021-01-26 04:11:01 2021-01-05 21:24:00
DjVu encoder with foreground/background separation - Jakub Wilk - jwilk github github 2.0M 2021-01-09 13:30:43 2021-01-26 03:51:01 2021-01-05 21:23:54
document analysis framework - main - gamera - hsnr-gamera github github 15.7M 2021-01-09 13:30:20 2021-01-26 03:51:01 2021-01-05 21:23:49
Java numerics library for optimization, polynomial root finding, sorting, robust model fitting, and more. - Peter Abeles - lessthanoptimal github github 4.0M 2021-01-09 11:35:39 2021-01-26 03:11:01 2021-01-05 21:20:35
libfirm git git 38.9M 2021-01-09 09:35:32 2021-01-26 01:11:02 2020-12-04 20:43:45
A list of command line tools for manipulating structured text data - D. Bohdan - dbohdan github github 9.2M 2021-01-09 01:12:50 2021-01-25 16:51:01 2020-07-23 20:19:07
Transforms PDF, Documents and Images into Enriched Structured Data - AXA - axa-group github github 93.4M 2021-01-09 00:07:38 2021-01-25 15:51:01 2020-07-06 18:44:05
A C++ library to compress and intersect sorted lists of integers using SIMD instructions - Daniel Lemire - lemire github github 24.2M 2021-01-08 22:13:12 2021-01-24 21:31:01 2020-06-19 05:44:30
A Rust library for manipulating curves - linebender github github 6.5M 2021-01-08 21:34:54 2021-01-24 20:51:01 2020-06-17 02:38:19
Implementations of a fast Message-Authentication Code - Andrew Moon - floodyberry github github 1.3M 2021-01-08 17:52:57 2021-01-24 17:11:01 2020-06-11 06:36:35
Implementations of a fast Elliptic-curve Digital Signature Algorithm - Andrew Moon - floodyberry github github 4.2M 2021-01-08 17:51:57 2021-01-24 17:11:01 2020-06-11 06:35:34
16 bit RISC-V proof of concept - Anton Mause - AntonMause github github 752K 2021-01-08 12:31:01 2021-01-27 06:11:01 2020-05-02 06:55:15
Forward error correction with SIMD optimizations - Jack Lloyd - randombit github github 3.8M 2021-01-08 11:51:54 2021-01-27 05:31:01 2020-04-16 18:37:17
SQLCipher is an SQLite extension that provides 256 bit AES encryption of database files. - SQLCipher - sqlcipher github github 703.3M 2021-01-08 10:51:01 2021-01-27 04:31:01 2020-02-28 04:36:21
Speex audio processing library - Please send patches to speex-dev@xiph.org - Xiph.Org Foundation - xiph github github 70.9M 2021-01-08 02:34:26 2021-01-26 19:51:01 2019-02-04 01:29:46
Speex voice codec - Send patches to speex-dev@xiph.org - Xiph.Org Foundation - xiph github github 40.1M 2021-01-08 01:54:05 2021-01-26 19:31:01 2019-02-03 22:04:00
Minhash LSH in Golang - Eric Zhu - ekzhu github github 1.3M 2021-01-08 00:51:24 2021-01-26 18:31:01 2019-01-25 00:55:35
PopSift is an implementation of the SIFT algorithm in CUDA. - AliceVision - alicevision github github 72.8M 2021-01-07 14:42:00 2021-01-26 09:31:01 2019-01-21 11:31:01
eXtended Keccak Code Package - XKCP github github 32.2M 2021-01-07 00:51:07 2021-01-25 22:11:01 2020-11-24 17:00:40
A curated list of resources for Image and Video Deblurring - Subeesh Vasu - subeeshvasu github github 5.3M 2021-01-07 00:11:01 2021-01-25 21:31:01 2020-10-23 21:05:55
ATTEND The friendly PIL fork (Python Imaging Library) - Pillow - python-pillow github github 196.0M 2021-01-06 19:11:03 2021-01-25 16:31:01 2020-07-06 19:05:48
Scan, index, and archive all of your paper documents - Paperless - the-paperless-project git git 7.8M 2021-01-06 18:51:09 2021-01-25 16:11:01 2020-07-06 18:58:41
Builder for modules for various Android devices. git git 1.2M 2021-01-06 07:51:01 2021-01-27 06:51:01 2020-05-16 00:23:49
ATTEND Golang implementation of the Raft consensus protocol - HashiCorp - hashicorp github github 197.4M 2021-01-05 22:51:51 2021-01-26 21:51:01 2019-02-26 19:03:35
MIRACL Cryptographic SDK: Multiprecision Integer and Rational Arithmetic Cryptographic Library is a C software library that is widely regarded by developers as the gold standard open source SDK for elliptic curve cryptography (ECC). - Miracl - miracl github github 11.9M 2021-01-05 17:34:52 2021-01-26 19:11:01 2019-01-25 01:07:20
7-zip source [mirror] - Kornel - kornelski github github 24.6M 2021-01-05 07:24:17 2021-01-26 16:31:02 2019-01-20 21:31:01
A Python Perceptual Image Hashing Module - Chris Pickett - bunchesofdonald github github 10.2M 2021-01-05 05:51:41 2021-01-26 15:11:02 2019-01-23 04:11:01
A scala based simulator for circuits described by a LoFirrtl file - freechipsproject github github 26.4M 2021-01-04 21:33:10 2021-01-26 07:11:01 2019-01-21 05:11:01
ATTEND Implementation of Content Defined Chunking (CDC) in Go - The restic backup program - restic github github 2.7M 2021-01-04 19:37:16 2021-01-26 05:51:01 2019-01-21 01:31:01
Open h.265 video codec implementation. - struktur AG - strukturag github github 77.3M 2021-01-04 18:11:01 2021-01-26 02:51:01 2020-12-23 20:02:52
Distributed Algorithms — Online Textbook - Jukka Suomela - suomela github github 6.8M 2021-01-04 14:19:11 2021-01-25 22:51:01 2020-11-24 18:05:20
The FastPFOR C++ library: Fast integer compression - Daniel Lemire - lemire github github 24.5M 2021-01-04 04:51:01 2021-01-24 21:31:01 2020-06-19 05:41:47
ATTEND Collection of test cases for Yosys - Yosys Headquarters - YosysHQ github github 7.5M 2021-01-04 03:16:10 2021-01-24 19:51:02 2020-06-15 07:29:14
2D Vector Graphics Engine Powered by JIT Compiler - Blend2D - blend2d github github 15.3M 2021-01-03 11:31:01 2021-01-27 00:11:01 2019-04-30 21:20:26
Shading-aware Multi-view Stereo - Fabian Langguth - flanggut github github 5.5M 2021-01-02 14:34:47 2021-01-26 12:31:01 2019-01-21 18:31:01
ATTEND GDAL is an open source X/MIT licensed translator library for raster and vector geospatial data formats. - Open Source Geospatial Foundation - OSGeo github github 784.7M 2021-01-02 02:31:38 2021-01-25 22:51:01 2020-11-24 17:18:22
A text-based widget toolkit - Markus Gans - gansm github github 22.6M 2021-01-01 21:51:14 2021-01-25 18:11:01 2020-09-23 06:13:03
OpenPaperwork - libinsane - Cross platform access to image scanners git git 4.5M 2021-01-01 18:31:04 2021-01-25 16:11:01 2020-07-06 18:47:41
OpenPaperwork - pyocr - Python wrapper for Tesseract and Cuneiform git git 3.1M 2021-01-01 18:31:01 2021-01-25 16:11:01 2020-07-06 18:47:20
An experimental GPU compute-centric 2D renderer. - linebender github github 10.3M 2021-01-01 15:34:21 2021-01-24 20:51:01 2020-06-17 02:37:58
Procedurally generated Chinese landscape painting. - Lingdong Huang - LingDong- github github 38.5M 2021-01-01 12:33:25 2021-01-24 17:51:01 2020-06-12 06:41:25
A fast HEIF image converter aimed at thumbnailing - Monostream - monostream github github 42.3M 2021-01-01 04:34:19 2021-01-27 04:31:01 2020-02-28 05:06:13
PDF Command Line Tools binaries for Linux, Mac, Windows - coherentgraphics github github 65.3M 2021-01-01 01:52:39 2021-01-27 02:11:01 2019-12-04 05:13:53
ATTEND Ruby extension for the libvips image processing library. - libvips - libvips github github 29.1M 2020-12-31 10:26:26 2021-01-26 13:11:01 2019-01-21 20:11:02
Configurable Datasette plugin running ripgrep - Simon Willison - simonw github github 380K 2020-12-30 22:31:54 2021-01-26 00:11:01 2020-12-04 18:37:12
UART -> AXI Bridge - ultraembedded github github 9.4M 2020-12-30 22:12:08 2021-01-25 23:51:01 2020-12-04 18:08:44
Breadth First Search Virtual Table Extension for Sqlite3 - Andrei - abetlen github github 1.2M 2020-12-30 19:51:16 2021-01-25 21:51:02 2020-11-24 16:38:36
Datasette plugin for searching all searchable tables at once - Simon Willison - simonw github github 912K 2020-12-30 18:31:14 2021-01-25 20:31:01 2020-10-06 17:59:59
Datasette plugin for rendering HTML based on JSON values - Simon Willison - simonw github github 312K 2020-12-30 18:11:16 2021-01-25 20:11:01 2020-10-06 17:59:37
Datasette plugin for publishing data using Vercel - Simon Willison - simonw github github 548K 2020-12-30 17:52:14 2021-01-25 19:51:01 2020-10-06 17:59:19
Datasette plugin that renders binary blob images using data-uris - Simon Willison - simonw github github 920K 2020-12-30 17:31:18 2021-01-25 19:31:02 2020-10-06 17:57:54
Datasette plugin providing an automatic GraphQL API for your SQLite databases - Simon Willison - simonw github github 1.5M 2020-12-30 17:31:12 2021-01-25 19:31:02 2020-10-06 17:57:49
All CPU and MCU documentation in one place - Lars Brinkhoff - larsbrinkhoff github github 567.0M 2020-12-30 04:11:15 2021-01-27 08:51:01 2020-05-20 02:39:59
This program uses the Chrome DevTools Protocol to drive a Chrome session that downloads your photos stored in Google Photos. - Perkeep (née Camlistore) - perkeep github github 1.9M 2020-12-30 00:38:36 2021-01-27 04:51:02 2020-03-02 06:40:23
ATTEND Reference implementation of the Ogg Vorbis audio format. - Xiph.Org Foundation - xiph github github 134.2M 2020-12-29 14:33:56 2021-01-26 19:51:01 2019-02-04 01:11:13
python binding for libvips using cffi - libvips - libvips github github 29.0M 2020-12-29 05:44:12 2021-01-26 13:11:01 2019-01-21 20:11:02
Implementations of edge (ED, EDColor, EDPF), line (EDLines), circle (EDCircles) detection algorithms. - Cihan Topal - CihanTopal github github 3.1M 2020-12-29 00:58:39 2021-01-26 08:51:01 2019-01-21 08:51:01
FTDI FT600 SuperSpeed USB3.0 to AXI bus master - ultraembedded github github 14.3M 2020-12-28 19:11:40 2021-01-26 01:51:01 2020-12-07 17:36:51
RISC-V cryptography extensions standardisation work. - RISC-V - riscv github github 3.0M 2020-12-28 18:13:09 2021-01-26 00:51:01 2020-12-04 20:09:24
A small test SoC for various soft-CPUs (Cortex-M0, RISC-V) - ultraembedded github github 1.7M 2020-12-28 17:31:44 2021-01-26 00:11:01 2020-12-04 18:09:26
FTDI FT245 Style Sync/Async FIFO Bridge - ultraembedded github github 9.3M 2020-12-28 17:31:01 2021-01-26 00:11:01 2020-12-04 18:08:48
RISC-V FPGA SIG Custom Function Unit Specification - Gray Research LLC - grayresearch github github 524K 2020-12-27 15:51:13 2021-01-27 02:11:01 2019-12-04 05:12:31
ATTEND Git mirror of the official Eigen's repository -- PR must be sent to https://bitbucket.org/eigen/eigen - eigenteam github github 316.7M 2020-12-26 20:51:01 2021-01-26 10:11:01 2019-01-21 11:31:01
Template project for beginning new Chisel work - freechipsproject github github 33.6M 2020-12-26 17:12:06 2021-01-26 07:31:01 2019-01-21 05:31:01
A readable lisp in less than 1k lines of C - Rui Ueyama - rui314 github github 8.0M 2020-12-26 06:13:51 2021-01-25 18:51:01 2020-10-06 07:58:57
A post-processing tool for scanned sheets of paper - unpaper github github 24.5M 2020-12-26 02:51:18 2021-01-25 16:11:01 2020-07-06 19:03:54
Tooling for simple object detection projects - Fausto Morales - faustomorales github github 7.6M 2020-12-26 02:27:38 2021-01-25 15:51:01 2020-07-06 18:43:59
Extract text page by page from OCR-ed and non OCR-ed PDFs - undebuggable github github 556K 2020-12-26 02:25:57 2021-01-25 15:51:01 2020-07-06 18:40:51
Instruction Set Generator initially contributed by Futurewei - OpenHW Group - openhwgroup github github 190.9M 2020-12-26 01:54:25 2021-01-25 15:31:01 2020-07-06 17:47:30
Linking Of Virtual Electronics to FPGAs 🙂. Use virtual components with real hardware for debugging without simulation - FPGAwars - FPGAwars github github 5.1M 2020-12-25 21:32:03 2021-01-24 18:31:02 2020-06-15 07:03:02
Pandoc-compatible templating system - John MacFarlane - jgm github github 1.6M 2020-12-25 17:56:30 2021-01-27 09:31:01 2020-06-08 22:44:33
commonmark homepage and reference + tutorial - CommonMark - commonmark github github 3.1M 2020-12-25 17:31:06 2021-01-27 09:11:01 2020-06-08 22:33:02
PiDP-8/I project fossil fossil 33.4M 2020-12-25 17:31:02 2021-01-27 09:11:01 2020-06-08 22:32:38
Noise-C, a plain C implementation of the Noise protocol - rweather github github 16.4M 2020-12-25 15:50:19 2021-01-27 07:11:01 2020-05-16 01:41:03
Emacs support for F* - FStarLang github github 5.0M 2020-12-25 15:48:04 2021-01-27 07:11:01 2020-05-16 01:03:48
Tutorial tour of the RISC-V ISA Spec (expressed in SAIL ISA spec language) - Rishiyur S. Nikhil - rsnikhil github github 15.4M 2020-12-25 10:31:08 2021-01-27 02:31:01 2019-12-10 19:43:46
ATTEND Mathematical Expression Parser and JIT Compiler - Petr Kobalicek - kobalicek github github 3.5M 2020-12-25 07:57:32 2021-01-26 23:51:01 2019-04-30 21:20:13
RISC-V Specification in Coq - Programming Languages and Verification Group at MIT CSAIL - mit-plv github github 8.9M 2020-12-25 05:12:13 2021-01-26 21:11:01 2019-02-26 18:52:12
fine-grained, cgroup-based tool for profiling memory usage over time of a process tree - Bobby Powers - bpowers github github 4.4M 2020-12-25 04:56:41 2021-01-26 20:51:01 2019-02-26 18:42:09
Convolutional Neural Networks - Joseph Redmon - pjreddie git git 6.7M 2020-12-25 04:31:33 2021-01-26 20:31:01 2019-02-06 19:46:30
Reference implementation of the Theora video compression format. - Xiph.Org Foundation - xiph github github 33.5M 2020-12-25 03:53:22 2021-01-26 19:31:01 2019-02-03 20:31:30
An easy-to-use C library for displaying text progress bars. - Trevor Fountain - doches github github 3.7M 2020-12-25 02:52:35 2021-01-26 18:31:01 2019-01-25 01:00:58
The Graph-Cut RANSAC algorithm proposed in paper: Daniel Barath and Jiri Matas; Graph-Cut RANSAC, Conference on Computer Vision and Pattern Recognition, 2018. It is available at https://arxiv.org/abs/1706.00984 - danini - Daniel Barath github github 240.8M 2020-12-24 21:51:09 2021-01-26 16:51:01 2019-01-20 22:11:01
Test files for the OpenJPEG libraries and utilities - Université catholique de Louvain - uclouvain github github 408.5M 2020-12-24 20:43:50 2021-01-26 15:51:01 2019-01-20 20:31:01
Ruby gem to measure images similarity - Victor Maslov - Nakilon github github 3.8M 2020-12-24 20:32:59 2021-01-26 15:51:01 2019-01-20 20:11:02
Fast GF(256) Cauchy MDS Block Erasure Codec in C - Chris Taylor - catid github github 4.2M 2020-12-24 19:31:53 2021-01-26 14:51:01 2019-01-23 03:31:01
Clients for building books with EpubPress. - Harold Treen - haroldtreen github github 25.2M 2020-12-24 18:31:01 2021-01-26 13:51:01 2019-01-22 05:11:01
VIP is a python package/library for angular, reference star and spectral differential imaging for exoplanet/disk detection through high-contrast imaging. - vortex-exoplanet - vortex-exoplanet github github 33.3M 2020-12-24 16:55:01 2021-01-26 12:51:01 2019-01-21 19:51:01
Tiny ISO-compliant C++ EXIF parsing library, third-party dependency free. - Mayank Lahiri - mayanklahiri github github 24.3M 2020-12-24 16:25:44 2021-01-26 12:31:01 2019-01-21 18:51:01
Converts floating point numbers to decimal strings - Ulf Adams - ulfjack github github 36.3M 2020-12-24 10:58:19 2021-01-26 07:31:01 2019-01-21 05:51:01
Code for Bell et al, "Intrinsic Images in the Wild", SIGGRAPH 2014. - Sean Bell - seanbell github github 9.4M 2020-12-24 05:31:54 2021-01-26 00:51:01 2020-12-04 19:46:47
Distributed Algorithms — Lecture Slides - Jukka Suomela - suomela github github 86.3M 2020-12-24 03:51:01 2021-01-25 23:11:01 2020-11-24 18:05:28
CPU feature identification for Go - Klaus Post - klauspost github github 10.1M 2020-12-24 01:51:16 2021-01-25 21:11:01 2020-10-23 20:50:04
Datasette plugin for publishing data using Fly - Simon Willison - simonw github github 628K 2020-12-24 01:11:10 2021-01-25 20:31:01 2020-10-06 17:59:54
Datasette plugin for authentication using passwords - Simon Willison - simonw github github 340K 2020-12-24 00:32:02 2021-01-25 19:51:01 2020-10-06 17:59:07
Datasette plugin that blocks all robots using robots.txt - Simon Willison - simonw github github 604K 2020-12-24 00:11:05 2021-01-25 19:31:02 2020-10-06 17:57:40
A small C compiler - Rui Ueyama - rui314 github github 12.8M 2020-12-23 23:32:02 2021-01-25 18:51:01 2020-10-06 07:57:05
MIRACLE: MIcRo-ArChitectural Leakage Evaluation - SCARV - scarv (db) github github 6.2M 2020-12-23 22:32:59 2021-01-25 17:51:01 2020-09-10 18:04:05
SymSpell: 1 million times faster through Symmetric Delete spelling correction algorithm - Wolf Garbe - wolfgarbe github github 60.3M 2020-12-23 22:11:12 2021-01-25 17:31:02 2020-09-09 20:51:18
MIRACLE: MIcRo-ArChitectural Leakage Evaluation - SCARV - scarv github github 7.1M 2020-12-23 21:51:38 2021-01-25 17:11:01 2020-09-09 20:50:56
XCrypto: a cryptographic ISE for RISC-V - SCARV - scarv github github 4.2M 2020-12-23 21:51:08 2021-01-25 17:11:01 2020-09-09 20:50:28
A list of software that turns your database into a REST/GraphQL API - D. Bohdan - dbohdan github github 4.5M 2020-12-23 21:38:56 2021-01-25 16:51:01 2020-07-23 20:23:48
Various iCE40 cores / projects to play around with (mostly targeted at the icebreaker) - Sylvain \"tnt\" Munaut - smunaut github github 8.8M 2020-12-09 11:58:35 2021-01-24 20:31:01 2020-06-15 07:35:06
Icestudio collection for standard Input-Output in different devices - FPGAwars - FPGAwars github github 8.4M 2020-12-09 09:51:25 2021-01-24 18:31:02 2020-06-15 07:02:14
Icestudio collection with the blocks of the FPGA Jedi hardware Academy - FPGAwars - FPGAwars github github 8.8M 2020-12-09 09:51:02 2021-01-24 18:31:02 2020-06-15 07:01:51
The BLAKE3 paper: specifications, analysis, and design rationale - BLAKE3 team - BLAKE3-team github github 30.1M 2020-12-09 07:36:10 2021-01-27 10:51:01 2020-06-08 23:51:15
Verified Assembly Language for Everest - Project Everest - project-everest github github 78.8M 2020-12-09 03:31:35 2021-01-27 07:11:01 2020-05-16 00:41:34
Aa set of tools to encode, inspect, and decode audio in the Opus format. - Xiph.Org Foundation - xiph github github 11.8M 2020-12-07 13:31:44 2021-01-26 19:31:01 2019-02-03 20:25:57
tinyraycaster - Dmitry V. Sokolov - ssloy github github 43.3M 2020-12-06 14:31:02 2021-01-26 17:31:01 2019-01-23 23:16:17
ATTEND Multi-View Environment - Simon Fuhrmann - simonfuhrmann github github 272.9M 2020-12-05 15:59:04 2021-01-26 10:11:01 2019-01-21 11:51:01
Export Datasette records as YAML - Simon Willison - simonw github github 428K 2020-12-04 13:51:01 2021-01-25 19:31:02 2020-10-06 17:57:36
ScanTools - Graphics manipulation with a view towards scanned documents git git 93.2M 2020-12-03 08:31:08 2021-01-27 06:31:01 2020-05-16 00:21:48
Erasure Code API library written in C with pluggable Erasure Code backends. - mirrors of git.openstack.org/openstack - openstack github github 10.6M 2020-12-01 09:51:13 2021-01-26 15:11:02 2019-01-23 04:11:01
HFS: Hierarchical Feature Selection for Efficient Image Segmentation - Yun Liu - yun-liu github github 10.2M 2020-11-30 13:31:01 2021-01-26 09:31:01 2019-01-21 10:11:01
Compute Vanishing points using RANSAC and rectify the image - Sasank Chilamkurthy - chsasank github github 7.3M 2020-11-30 11:11:35 2021-01-26 08:11:02 2019-01-21 07:11:01
A Small C Compiler - Rui Ueyama - rui314 github github 7.4M 2020-11-30 10:51:01 2021-01-26 07:51:01 2019-01-21 06:11:01
Decode embedded EXIF meta data from image files. - Robert Carlsen - rwcarlsen github github 8.7M 2020-11-30 05:18:14 2021-01-25 22:51:01 2020-11-24 17:58:43
Official repository of shapelib - Open Source Geospatial Foundation - OSGeo github github 2.4M 2020-11-30 04:11:02 2021-01-25 22:51:01 2020-11-24 17:17:41
A go function to report total system memory - Jeremy Jay - pbnjay github github 1.0M 2020-11-30 02:32:52 2021-01-25 21:11:01 2020-10-23 20:52:39
Manuals, lexica, OCR test data for PoCoTo and the profiler - CIS OCR Group - cisocrgroup github github 190.3M 2020-11-29 06:51:24 2021-01-25 15:11:01 2020-07-06 17:30:55
J-Core SoC Base Platfrom. Top level for FPGA platforms, pulls in CPU, BootROM and various IP blocks. - J-core Open Processor - j-core github github 864K 2020-11-28 11:51:31 2021-01-27 08:31:01 2020-05-20 02:39:24
J-Core J2/J32 5 stage pipeline CPU core - J-core Open Processor - j-core github github 968K 2020-11-28 11:51:12 2021-01-27 08:31:01 2020-05-20 02:39:13
CS302 Lecture_Notes - James Plank git git 50.3M 2020-11-28 09:11:03 2021-01-27 05:51:02 2020-04-17 18:38:30
Cauchy Caterpillar : O(N^2) Short-Window Streaming Erasure Code - Chris Taylor - catid github github 3.8M 2020-11-26 04:53:53 2021-01-26 14:31:01 2019-01-23 03:11:01
Better lossless compression than PNG with a simpler algorithm - Chris Taylor - catid github github 539.8M 2020-11-26 04:32:11 2021-01-26 14:11:02 2019-01-23 02:11:02
A curated list of resources on handling Rolling Shutter effects and Radial Distortions - Subeesh Vasu - subeeshvasu github github 860K 2020-11-24 05:34:05 2021-01-25 21:31:01 2020-10-23 21:08:39
libscarv: cryptographic software kernels for RISC-V - SCARV - scarv github github 1.5M 2020-11-23 15:11:22 2021-01-25 17:11:01 2020-09-09 20:50:41
Mirror of git://ffmpeg.org/ffmpeg-web - FFmpeg github github 5.9M 2020-11-23 09:31:30 2021-01-25 15:11:01 2020-07-06 17:32:45
Boolector website.@gh - Boolector github github 29.4M 2020-11-22 03:11:19 2021-01-27 01:11:01 2019-10-12 23:07:55
A formal semantics of the RISC-V ISA in Haskell - Programming Languages and Verification Group at MIT CSAIL - mit-plv github github 6.0M 2020-11-21 12:31:01 2021-01-26 21:31:01 2019-02-26 18:52:19
Data Science at the Command Line - Jeroen Janssens - jeroenjanssens github github 104.5M 2020-11-21 08:58:30 2021-01-26 19:11:01 2019-01-25 01:10:11
Fast, robust RFC 2045 (Quoted-Printable) and RFC 2047 (Q-Encoding) encoder/decoder for Buffers in pure Javascript with an optional C++ binding. Avoids intermediary string allocations and regular expressions. Reduces branching through the use of lookup tables. - Ronomon - ronomon github github 412K 2020-11-20 07:58:02 2021-01-26 13:51:01 2019-01-23 01:31:02
PNG encoder and decoder in C and C++. - Lode Vandevenne - lvandeve github github 110.1M 2020-11-20 06:54:50 2021-01-26 13:31:01 2019-01-21 20:51:01
Text page dewarping using a \"cubic sheet\" model - Matt Zucker - mzucker github github 18.7M 2020-11-19 16:11:55 2021-01-26 10:31:02 2019-01-21 12:31:02
Datasette plugin for outputting tables in formats suitable for copy and paste - Simon Willison - simonw github github 592K 2020-11-18 16:18:48 2021-01-25 19:11:01 2020-10-06 17:57:31
Index of Icestudio resources: blocks, collections, icons, examples... - FPGAwars - FPGAwars github github 30.3M 2020-11-18 04:11:32 2021-01-24 18:31:02 2020-06-15 07:02:26
ATTEND A radix tree implementation in ANSI C - Salvatore Sanfilippo - antirez github github 5.1M 2020-11-16 03:14:59 2021-01-26 16:31:02 2019-01-20 21:51:01
Experimental Metal-based GPU renderer for piet 2D graphics. - linebender github github 1.3M 2020-11-13 13:34:22 2021-01-24 20:51:01 2020-06-17 02:36:38
NIST Lightweight Cryptography Primitives - rweather github github 32.7M 2020-11-13 05:31:01 2021-01-27 07:51:01 2020-05-16 01:42:29
ATTEND Official doxygen git repository - Dimitri van Heesch - doxygen github github 117.6M 2020-11-12 14:35:14 2021-01-27 04:11:01 2020-01-31 06:07:54
Orc - Optimized Inner Loop Runtime Compiler - GStreamer GitHub mirrors - GStreamer github github 5.7M 2020-11-12 07:51:01 2021-01-26 22:11:01 2019-03-01 21:14:55
Automatically exported from code.google.com/p/jpeg-compressor - Rich Geldreich - richgel999 github github 3.2M 2020-11-12 02:31:53 2021-01-26 18:31:01 2019-01-25 01:00:38
An Invitation to 3D Vision: A Tutorial for Everyone - Sunglok Choi - sunglok github github 186.9M 2020-11-10 12:31:36 2021-01-26 13:31:01 2019-01-21 20:51:01
ATTEND Layer 3 TUN driver for the Windows kernel and NDIS stack. git git 2.9M 2020-11-08 09:31:08 2021-01-27 11:31:01 2020-06-09 00:38:56
Standards compliant, fast, secure markdown processing library in C - Vicent Martí - vmg github github 25.1M 2020-11-08 08:39:07 2021-01-27 10:31:01 2020-06-08 23:29:00
Longhair : O(N^2) Cauchy Reed-Solomon Block Erasure Code for Small Data - Chris Taylor - catid github github 4.7M 2020-11-06 08:11:56 2021-01-26 14:31:01 2019-01-23 02:51:01
FEC-AL : O(N^2) Fountain Code for Small Data - Chris Taylor - catid github github 1.1M 2020-11-06 08:11:50 2021-01-26 14:31:01 2019-01-23 02:51:01
Siamese : Infinite-Window Streaming Erasure Code (HARQ) - Chris Taylor - catid github github 716K 2020-11-06 08:11:44 2021-01-26 14:31:01 2019-01-23 02:51:01
Shorthair : Generational Block Streaming Erasure Codes - Chris Taylor - catid github github 5.6M 2020-11-06 08:11:13 2021-01-26 14:31:01 2019-01-23 02:31:01
Fast, robust, standards-compliant MIME decoder. Ships with extensive tests and fuzz tests. - Ronomon - ronomon github github 1.8M 2020-11-06 07:51:02 2021-01-26 14:11:02 2019-01-23 01:51:02
Go parallel gzip (de)compression - Klaus Post - klauspost github github 9.7M 2020-11-06 07:33:02 2021-01-26 13:51:01 2019-01-23 01:31:02
CRC32 hash with x64 optimizations - Klaus Post - klauspost github github 2.2M 2020-11-06 07:32:00 2021-01-26 13:51:01 2019-01-22 05:31:01
Lua binding for the libvips image processing library - libvips - libvips github github 16.7M 2020-11-06 06:18:34 2021-01-26 13:11:01 2019-01-21 20:11:02
Modular workflow assistant for book digitization - DIY Book Scanner - DIYBookScanner github github 36.1M 2020-11-06 02:52:11 2021-01-26 10:51:01 2019-01-21 13:31:01
Package with Constant Function implementations of mathematical functions for HDL elaboration - pulp-platform github github 504K 2020-11-05 06:13:55 2021-01-26 06:31:01 2019-01-21 02:51:01
ATTEND LZHAM codec - Rich Geldreich github github 5.4M 2020-11-05 03:29:11 2021-01-26 04:51:02 2019-01-20 22:51:01
Datasette plugin for enabling full-text search against selected table columns - Simon Willison - simonw github github 448K 2020-11-04 15:31:14 2021-01-25 20:31:01 2020-10-06 17:59:57
Datasette plugin for uploading CSV files and converting them to database tables - Simon Willison - simonw github github 316K 2020-11-04 15:11:13 2021-01-25 20:11:01 2020-10-06 17:59:33
SCARV-related UG, PGR, and PhD thesis archive - SCARV - scarv github github 500K 2020-11-04 12:11:26 2021-01-25 17:11:01 2020-09-09 20:50:50
ATTEND Parsing gigabytes of JSON per second - simdjson github github 72.6M 2020-11-04 05:11:51 2021-01-24 21:11:01 2020-06-19 05:27:41
Flexible CommonMark converter - John MacFarlane - jgm github github 1020K 2020-11-03 13:11:01 2021-01-27 09:51:01 2020-06-08 22:45:59
An open source Video Display Controller following in the footsteps, but not a clone, of the Commodore 8568 VDC chip. - Samuel A. Falvo II - sam-falvo github github 3.7M 2020-11-03 12:11:11 2021-01-27 08:51:01 2020-05-20 02:39:54
Novel extreme-performance CPU-GPU cooperative feature detector-descriptor for computer vision. - Kareem Omar - komrad36 github github 8.1M 2020-11-03 04:51:52 2021-01-27 03:31:01 2020-01-31 05:48:48
A suite of utilities for converting to and working with CSV, the king of tabular file formats. - wireservice - wireservice github github 101.5M 2020-11-02 09:41:14 2021-01-26 19:11:01 2019-01-25 01:20:39
tracer - A brief computer graphics / rendering course - Dmitry V. Sokolov - ssloy github github 232.4M 2020-11-01 09:34:47 2021-01-26 17:11:01 2019-01-23 18:43:04
Datasette plugin for rendering Markdown - Simon Willison - simonw github github 1000K 2020-10-30 15:11:11 2021-01-25 21:11:01 2020-10-06 18:00:27
Ways to accelerate AES in a RISC-like CPU pipeline. - SCARV - scarv github github 3.0M 2020-10-30 11:31:01 2021-01-25 17:31:02 2020-09-09 20:51:07
OCR-D python tools - CIS OCR Group - cisocrgroup git git 46.0M 2020-10-30 07:51:09 2021-01-25 16:11:01 2020-07-06 19:02:41
This is just the content of the web site at http://roaringbitmap.org/ - Roaring bitmaps: A better compressed bitset - RoaringBitmap github github 1.1M 2020-10-30 05:31:21 2021-01-24 21:51:01 2020-06-19 05:47:28
This is a test suit spacewire using a model on systemC with a verilog with graphical interface - Latin American Group Integrated Circuits Development Open Source - GLADICOS github github 666.4M 2020-10-30 01:37:41 2021-01-24 17:51:01 2020-06-15 06:50:57
Plain Java implementation of the Noise protocol - rweather github github 4.0M 2020-10-29 10:31:07 2021-01-27 07:51:01 2020-05-16 01:42:38
Encoder and decoder for the Base24 encoding - Nicolas Goy - kuon github github 604K 2020-10-29 09:12:03 2021-01-27 06:31:01 2020-05-16 00:22:27
A Simultaneous Pack-and-Place Algorithm for UltraScale FPGA - CUHK EDA - cuhk-eda github github 6.5M 2020-10-29 02:33:40 2021-01-27 02:51:01 2019-12-10 19:46:48
Display images in your terminal, kind of - nabijaczleweli - nabijaczleweli github github 117.4M 2020-10-28 06:31:31 2021-01-26 18:51:01 2019-01-25 01:03:16
Quickly view (satellite) imagery directly in your terminal using Unicode 9.0 characters and true color. - Dale Roberts - daleroberts github github 5.2M 2020-10-28 06:31:02 2021-01-26 18:51:01 2019-01-25 01:02:51
GF256 - Fast 8-bit Galois Field Math in C - Chris Taylor - catid github github 872K 2020-10-27 08:31:01 2021-01-26 14:31:01 2019-01-23 02:31:01
Convert scans of handwritten notes to beautiful, compact PDFs - Matt Zucker - mzucker github github 58.7M 2020-10-27 02:15:15 2021-01-26 10:31:02 2019-01-21 12:51:01
Location of all Chisel Governance-related Documents - freechipsproject github github 932K 2020-10-26 11:52:22 2021-01-26 07:11:01 2019-01-21 04:51:02
header-only library to validate utf-8 strings at high speeds (using SIMD instructions) - Daniel Lemire - lemire github github 4.3M 2020-10-26 11:51:14 2021-01-26 07:11:01 2019-01-21 04:31:02
A very fast static spatial index for 2D points and rectangles in JavaScript - Vladimir Agafonkin - mourner github github 4.4M 2020-10-26 10:29:36 2021-01-26 06:11:02 2019-01-21 02:31:01
Barcode detection and decoding using openCV and Zbar. - M. Asad Ali - pyxploiter github github 2.7M 2020-10-26 04:51:50 2021-01-25 18:31:02 2020-10-06 07:46:01
Convert between CBOR, JSON, MessagePack, TOML, and YAML - D. Bohdan - dbohdan github github 2.7M 2020-10-26 03:22:41 2021-01-25 16:51:01 2020-07-23 20:25:19
OpenPaperwork - libpillowfight - Small library containing various image processing algorithms that has almost no dependencies, plus bindings to Python 3 git git 123.5M 2020-10-25 23:51:09 2021-01-25 16:11:01 2020-07-06 18:47:24
ATTEND Mutation Cover with Yosys (MCY) - Yosys Headquarters - YosysHQ github github 6.5M 2020-10-25 19:40:31 2021-01-24 19:51:02 2020-06-15 07:29:06
ATTEND SymbiYosys (sby) -- Front-end for Yosys-based formal verification flows - Yosys Headquarters - YosysHQ github github 5.7M 2020-10-25 19:39:27 2021-01-24 19:51:02 2020-06-15 07:28:10
Guidelines for low-level cryptography software - Jean-Philippe Aumasson - veorq github github 3.8M 2020-10-25 14:53:12 2021-01-24 17:51:01 2020-06-11 06:42:10
dns.c: Single file non-blocking DNS C library without callbacks or external dependencies. - William Ahern - wahern github github 6.7M 2020-10-25 14:52:03 2021-01-24 17:51:01 2020-06-11 06:41:03
A flexible implementation of Colin Percival's scrypt - Andrew Moon - floodyberry github github 1.3M 2020-10-25 14:12:06 2021-01-24 17:11:01 2020-06-11 06:35:03
A python module for writing pandoc filters, with a collection of examples - John MacFarlane - jgm github github 7.7M 2020-10-25 11:52:04 2021-01-27 09:51:01 2020-06-08 22:46:42
Library and executable for using citeproc with pandoc - John MacFarlane - jgm github github 13.3M 2020-10-25 11:31:01 2021-01-27 09:11:01 2020-06-08 22:35:10
Pixman: The pixel-manipulation library for X and cairo. git git 3.8M 2020-10-25 08:11:07 2021-01-27 06:11:01 2020-05-02 06:55:19
ATTEND Git mirror of the geogram library by INRIA - AliceVision - alicevision github github 36.1M 2020-10-25 01:03:13 2021-01-26 23:51:01 2019-04-30 21:19:15
Deep object detection on a Raspberry Pi using Keras + Tensorflow - Leigh Johnson - leigh-johnson github github 918.2M 2020-10-25 00:11:19 2021-01-26 23:11:01 2019-03-06 05:13:29
The J1 CPU - James Bowman - jamesbowman github github 1.2M 2020-10-24 21:31:03 2021-01-26 21:11:01 2019-02-26 18:42:56
All code found on nandland is here - nandland github github 28.5M 2020-10-24 21:23:27 2021-01-26 20:51:01 2019-02-26 18:42:46
High-dimensional medians (medoid, geometric median, etc.). Fast implementations in Python. - Dale Roberts - daleroberts github github 2.4M 2020-10-24 18:31:03 2021-01-26 19:11:01 2019-01-25 01:05:18
Swift implementation of Tanner Helland's color-temperature-to-RGB algorithm.@gh - davidf2281 github github 372K 2020-10-24 02:31:05 2021-01-26 15:51:01 2019-01-20 20:11:02
A fast static index for 2D points - Vladimir Agafonkin - mourner github github 4.8M 2020-10-24 01:48:43 2021-01-26 15:11:02 2019-01-23 04:31:01
Produce watertight polygonal vector maps by tracing raster images - Matt Zucker - mzucker github github 2.1M 2020-10-07 10:23:00 2021-01-26 10:31:02 2019-01-21 13:11:01
ATTEND ZPAQ's complete code history mirror - zpaq github github 7.3M 2020-10-06 15:57:08 2021-01-26 05:51:01 2019-01-21 01:31:01
Word Segmentation with Dynamic Programming - Wolf Garbe - wolfgarbe github github 2.1M 2020-10-06 12:51:13 2021-01-25 17:51:01 2020-09-09 20:56:27
Fast Word Segmentation with Triangular Matrix - Wolf Garbe - wolfgarbe github github 28.3M 2020-10-06 12:51:01 2021-01-25 17:31:02 2020-09-09 20:56:06
Fast approximate strings search & spelling correction - Wolf Garbe - wolfgarbe github github 4.6M 2020-10-06 12:35:51 2021-01-25 17:31:02 2020-09-09 20:55:58
PruningRadixTrie - 1000x faster Radix trie for prefix search & auto-complete - Wolf Garbe - wolfgarbe github github 27.7M 2020-10-06 12:35:43 2021-01-25 17:31:02 2020-09-09 20:55:41
EliasFanoCompression: quasi-succinct compression of sorted integers in C# - Wolf Garbe - wolfgarbe github github 492K 2020-10-06 12:31:10 2021-01-25 17:31:02 2020-09-09 20:51:16
ATTEND Place and route tool for FPGAs - Yosys Headquarters - YosysHQ github github 12.2M 2020-09-22 13:11:01 2021-01-24 19:51:02 2020-06-15 07:29:39
ATTEND Yosys Open SYnthesis Suite - Yosys Headquarters - YosysHQ github github 312.0M 2020-09-22 12:53:50 2021-01-24 19:51:02 2020-06-15 07:16:17
An implementation of markdown in C, using a PEG grammar - John MacFarlane - jgm github github 11.0M 2020-09-22 08:51:03 2021-01-27 10:31:01 2020-06-08 23:18:00
Fork of https://git.zx2c4.com/winipcfg-go - Tailscale - tailscale github github 704K 2020-09-22 04:57:25 2021-01-27 06:51:01 2020-05-16 00:26:47
Github repo for Jerasure Library - C Implementation of Reed-Solomon coding - tsuraan github github 11.8M 2020-09-20 08:17:57 2021-01-26 15:31:01 2019-01-23 04:51:01
Mesh compression library, designed for rendering and speed. - Visual Computing Lab - ISTI - CNR - cnr-isti-vclab github github 9.4M 2020-09-19 09:52:16 2021-01-26 09:11:01 2019-01-21 09:31:01
Fast Delaunay triangulation implemented in Go. - Michael Fogleman - fogleman github github 1.0M 2020-09-19 04:31:02 2021-01-26 05:51:01 2019-01-21 01:11:01
aka \"Bayesian Methods for Hackers\": An introduction to Bayesian methods + probabilistic programming with a computation/understanding-first, mathematics-second point of view. All in pure Python ;) - Cameron Davidson-Pilon - CamDavidsonPilon git git 156.9M 2020-09-15 12:11:01 2021-01-26 17:11:01 2019-01-23 20:56:45
ATTEND zfec -- an efficient, portable erasure coding tool - Tahoe-LAFS - tahoe-lafs github github 6.3M 2020-09-15 07:11:01 2021-01-26 14:51:01 2019-01-23 03:51:01
Experimental markdown processor in Haskell - John MacFarlane - jgm github github 2.2M 2020-09-13 17:11:01 2021-01-27 09:31:01 2020-06-08 22:44:38
ATTEND types for representing structured documents - John MacFarlane - jgm github github 9.7M 2020-09-13 16:52:33 2021-01-27 09:31:01 2020-06-08 22:36:54
bzip2 compression home - federicomenaquintero git git 1.7M 2020-09-13 13:11:12 2021-01-27 05:51:02 2020-04-23 21:50:15
ATTEND An Instruction Set Extension to accelerate ChaCha on 64-bit platforms, focusing on RISC-V - SCARV - scarv github github 1.8M 2020-09-10 09:31:01 2021-01-25 17:11:01 2020-09-09 20:51:04
BLAKE2 official implementations - BLAKE2 — fast secure hashing - BLAKE2 github github 13.3M 2020-09-09 10:51:56 2021-01-27 10:51:01 2020-06-08 23:46:44
CS140 Lecture_Notes - James Plank git git 18.9M 2020-09-08 13:11:02 2021-01-27 05:51:02 2020-04-17 18:38:08
Richer Convolutional Features for Edge Detection - Yun Liu - yun-liu github github 12.2M 2020-09-06 02:31:47 2021-01-26 09:31:01 2019-01-21 10:31:02
BlockQuicksort - Armin Weiß - weissan github github 712K 2020-09-01 14:23:42 2021-01-26 15:31:01 2019-01-20 17:51:01
php binding for libvips - libvips - libvips github github 11.6M 2020-09-01 10:48:42 2021-01-26 13:11:01 2019-01-21 20:31:01
ATTEND Brotli compression format - Google - google github github 282.3M 2020-08-27 09:03:06 2021-01-26 13:31:01 2019-01-21 21:31:01
Reproducing images with geometric primitives. - Michael Fogleman - fogleman github github 234.4M 2020-08-26 10:19:18 2021-01-26 06:11:02 2019-01-21 02:11:01
Read-only mirror of http://jerasure.org/jerasure/jerasure - Ceph - ceph github github 7.0M 2020-08-25 03:16:58 2021-01-27 05:11:02 2020-04-16 18:35:43
ATTEND A free, portable photo editor focused on pro-grade features, high performance, and maximum usability. - Tanner - tannerhelland github github 379.4M 2020-08-23 04:51:26 2021-01-26 15:51:01 2019-01-20 20:11:02
Content-Defined Chunking for Rust - Remi Rampin - remram44 github github 1.5M 2020-08-17 04:31:13 2021-01-26 12:11:01 2019-01-21 17:51:01
An eBook version of Harry Potter and the Nightmares of Futures Past by Matthew Schocke. - Ian Moriarty - IntermittentlyRupert github github 27.4M 2020-08-14 18:11:27 2021-01-27 02:11:01 2019-11-18 02:02:00
All-pair set similarity search on millions of sets in Python and on a laptop (faster than MinHash LSH) - Eric Zhu - ekzhu github github 2.7M 2020-08-14 07:43:12 2021-01-26 17:31:01 2019-01-24 00:10:55
ATTEND Automated generation of provably secure, zero-copy parsers from format specifications - Project Everest - project-everest github github 74.6M 2020-08-12 05:56:16 2021-01-27 06:51:01 2020-05-16 00:39:04
ATTEND Reference implementation of the Ogg media container - Xiph.Org Foundation - xiph github github 25.9M 2020-08-11 13:14:59 2021-01-26 19:51:01 2019-02-04 00:22:06
ice40 USB Analyzer - Sylvain \"tnt\" Munaut - smunaut github github 564K 2020-08-09 13:13:56 2021-01-24 20:31:01 2020-06-15 07:35:31
Resource-efficient 16-bit CPU architecture for FPGA control plane - whitequark - whitequark github github 3.7M 2020-08-09 12:31:02 2021-01-24 19:31:02 2020-06-15 07:13:41
Clone of Phil Karn's libfec with capability to build on x86-64 - Quiet Modem Project - quiet github github 2.4M 2020-08-06 04:32:53 2021-01-27 05:31:01 2020-04-16 18:38:21
A C/C++ header file for fast 32-bit division remainders (and divisibility tests) on 64-bit hardware. - Daniel Lemire - lemire github github 1.9M 2020-08-03 07:41:23 2021-01-26 20:51:01 2019-02-11 21:56:49
Efficient set similarity search algorithms implemented in Go - Eric Zhu - ekzhu github github 876K 2020-08-03 03:52:52 2021-01-26 17:31:01 2019-01-24 00:11:26
Fast, reliable Reed-Solomon erasure coding as a native addon for Node.js. - Ronomon - ronomon github github 1.2M 2020-08-02 10:13:34 2021-01-26 14:51:01 2019-01-23 03:51:01
Native Cipher, Hash, and HMAC operations executed in Node's threadpool for multi-core throughput. - Ronomon - ronomon github github 2.3M 2020-08-02 09:31:13 2021-01-26 14:11:02 2019-01-23 01:51:02
ATTEND The easiest, most secure way to use WireGuard and 2FA. - Tailscale - tailscale github github 189.9M 2020-07-31 16:11:07 2021-01-27 06:51:01 2020-05-16 00:23:51
ATTEND A fully non-destructive photo retouching program providing a complete layer-based workflow including RAW image development - aferrero2707 github github 102.7M 2020-07-30 03:51:01 2021-01-26 13:11:01 2019-01-21 20:31:01
Adaptive Threshold in JavaScript - Fuji Haruka - FujiHaruka github github 1.4M 2020-07-29 15:11:15 2021-01-26 11:31:01 2019-01-21 15:11:02
Interactive demos - Jasper St. Pierre - magcius github github 5.8M 2020-07-28 08:03:52 2021-01-27 10:31:01 2020-06-08 23:44:44
1801 series ULA reverse engineering - 1801BM1 github github 19.0M 2020-07-28 03:51:46 2021-01-27 06:11:01 2020-05-02 06:57:38
Instructions database and utilities for X86/X64 and ARM (THUMB/A32/A64) architectures. - AsmJit - asmjit github github 4.5M 2020-07-27 09:52:12 2021-01-27 00:11:01 2019-04-30 21:20:47
The Visualization and Computer Graphics Library (VCG) - cDc - cdcseacave github github 21.6M 2020-07-26 07:54:35 2021-01-26 12:51:01 2019-01-21 19:31:01
BING: Binarized Normed Gradients for Objectness Estimation at 300fps - Yun Liu - yun-liu github github 61.5M 2020-07-26 02:37:33 2021-01-26 09:31:01 2019-01-21 10:31:02
Fast random number generators: Vectorized (SIMD) version of xorshift128+ - Daniel Lemire - lemire github github 596K 2020-07-25 04:51:55 2021-01-24 21:51:01 2020-06-19 05:48:10
:star2: Alhambra II FPGA board - FPGAwars - FPGAwars github github 30.0M 2020-07-24 15:31:06 2021-01-24 18:51:01 2020-06-15 07:03:17
Minimal loopback test for a SpaceWire Network. - Juanma Gómez - jmgomez-IAA github github 1.5M 2020-07-24 14:51:02 2021-01-24 17:51:01 2020-06-15 06:55:16
By the Bluebook implementation of Smalltalk-80 - Dan Banay - dbanay github github 6.9M 2020-07-24 12:43:28 2021-01-27 10:31:01 2020-06-08 23:34:01
Visual Simulation of Register Transfer Logic - Morten Borup Petersen - mortbopet github github 17.7M 2020-07-24 06:52:52 2021-01-27 05:11:02 2020-03-20 00:04:56
Lingeling SAT Solver - Armin Biere - arminbiere github github 4.0M 2020-07-10 12:51:01 2021-01-27 00:51:01 2019-10-12 23:06:44
C library providing BLAKE2b, BLAKE2s, BLAKE2bp, BLAKE2sp - BLAKE2 — fast secure hashing - BLAKE2 github github 4.5M 2020-07-08 07:57:22 2021-01-27 10:51:01 2020-06-08 23:51:41
A simple C library for compressing lists of integers using binary packing - Daniel Lemire - lemire github github 3.8M 2020-07-05 21:36:51 2021-01-24 21:31:01 2020-06-19 05:45:43
OpenMVS usage example - cDc - cdcseacave github github 1.0G 2020-07-03 22:11:46 2021-01-26 12:51:01 2019-01-21 19:11:01
Building scantailor and its dependencies - 4lex4 github github 852K 2020-07-02 22:51:05 2021-01-27 06:31:01 2020-05-16 00:19:55
ATTEND Image metadata library and tools - Exiv2 - Exiv2 github github 138.4M 2020-07-01 17:41:34 2021-01-26 16:31:02 2019-01-20 21:51:01
Formal specification of RISC-V Instruction Set - Rishiyur S. Nikhil - rsnikhil github github 13.0M 2020-06-30 04:51:16 2021-01-27 02:31:01 2019-12-10 19:43:50
Snowshoe - Portable, Secure, Fast Elliptic Curve Math Library in C - Chris Taylor - catid github github 3.8M 2020-06-29 07:51:29 2021-01-26 14:11:02 2019-01-23 02:11:02
ATTEND A simple, modern and secure encryption tool with small explicit keys, no config options, and UNIX-style composability. - Filippo Valsorda - FiloSottile github github 18.6M 2020-06-28 01:51:17 2021-01-27 03:51:01 2020-01-31 05:49:24
The J-Core Jx Platform board hardware. - J-core Open Processor - j-core github github 4.6M 2020-06-23 21:31:01 2021-01-27 08:31:01 2020-05-20 02:39:28
Python Photogrammetry Toolbox (formerly osm-bundler), for rendering a 3D pointcloud from photos of an object at different angles - steve-vincent github github 12.0M 2020-06-21 23:11:01 2021-01-26 08:31:01 2019-01-21 07:31:01
ATTEND MiniZ (Single source zlib-replacement) - Rich Geldreich github github 18.7M 2020-06-21 18:46:46 2021-01-26 04:51:02 2019-01-20 22:51:01
A collection of tools for cleaning up book scans. - Patrick Hulin - phulin github github 170.6M 2020-06-19 14:23:35 2021-01-26 09:11:01 2019-01-21 10:11:01
timer.c: Tickless hierarchical timing wheel - William Ahern - wahern github github 3.7M 2020-06-17 21:51:01 2021-01-24 17:31:02 2020-06-11 06:40:01
Maildir and IMAP folder processing with user-defined Python scripts - mailprocessing github github 3.4M 2020-06-17 02:51:02 2021-01-26 21:51:01 2019-03-01 21:14:44
ATTEND A free, open source, CMM engine. It provides fast transforms between ICC profiles. - Marti Maria - mm2 github github 112.1M 2020-06-15 21:49:31 2021-01-26 15:51:01 2019-01-20 20:31:01
Pi Scan is a simple, robust capture appliance for book scanners. It runs on a Raspberry Pi 2. - Tenrec Builders LLC - Tenrec-Builders github github 1.7M 2020-06-12 17:31:23 2021-01-27 06:31:01 2020-05-16 00:20:53
Tree Compiler-Compiler - rweather github github 936K 2020-06-10 10:20:56 2021-01-27 07:51:01 2020-05-16 01:43:05
:seedling: :snowflake: Collection of open-source peripherals in Verilog - FPGAwars - FPGAwars github github 23.2M 2020-06-09 22:44:03 2021-01-26 21:51:01 2019-02-26 19:00:00
ATTEND open Multiple View Geometry library. Basis for 3D computer vision and Structure from Motion. - openMVG - openMVG github github 519.2M 2020-06-05 20:46:40 2021-01-26 09:11:01 2019-01-21 09:31:01
microsat SAT solver - marijnheule github github 1.8M 2020-06-04 23:11:42 2021-01-27 01:11:01 2019-10-12 23:08:31
Submodule repository with CAD files for cpu11 - 1801BM1 github github 104.4M 2020-05-31 03:31:27 2021-01-27 06:11:01 2020-05-02 06:56:28
Functional model for RISC V@gh - nedbrek github github 528K 2020-05-26 00:31:01 2021-01-27 05:51:02 2020-04-23 21:50:13
Tools and utilities for SQLCipher - SQLCipher - sqlcipher github github 1.3M 2020-05-25 20:55:49 2021-01-27 04:31:01 2020-02-28 05:03:58
Line3D++ - Multi-View Stereo using Line Segments - Manuel Hofer - manhofer github github 46.1M 2020-05-24 09:47:04 2021-01-26 12:51:01 2019-01-21 19:11:01
ATTEND BOOM: Berkeley Out-of-Order Machine - The Berkeley Out-of-Order RISC-V Processor - riscv-boom github github 78.0M 2020-05-22 03:06:55 2021-01-26 07:31:01 2019-01-21 05:51:01
A path tracer written in Go. - Michael Fogleman - fogleman github github 13.4M 2020-05-21 23:31:22 2021-01-26 05:51:01 2019-01-21 01:11:01
An advanced lane-finding algorithm using distortion correction, image rectification, color transforms, and gradient thresholding. - Mithi Sevilla github github 302.7M 2020-05-12 21:34:43 2021-01-26 05:11:01 2019-01-20 23:31:01
A simple script to build open-source FPGA tools. - Piotr Esden-Tempski - esden github github 1.3M 2020-05-12 06:12:31 2021-01-26 21:51:01 2019-02-26 19:03:32
Backblaze Reed-Solomon Implementation in Java - Backblaze - Backblaze github github 5.6M 2020-05-06 12:31:01 2021-01-27 05:11:02 2020-04-16 18:32:52
Packetbl is a user space RBL client that works with netfilter @gh - zevenet github github 2.5M 2020-05-06 07:33:38 2021-01-27 03:51:01 2020-01-31 05:51:02
ATTEND Flexible Intermediate Representation for RTL - freechipsproject github github 144.6M 2020-05-02 21:31:30 2021-01-26 07:31:01 2019-01-21 05:11:01
ATTEND A graphical processor simulator and assembly editor for the RISC-V ISA - Morten Borup Petersen - mortbopet github github 40.1M 2020-05-02 15:11:08 2021-01-27 05:11:02 2020-03-20 00:00:43
ATTEND G'MIC is a full-featured open-source framework for image processing, providing several different user interfaces to convert/manipulate/filter/visualize generic image datasets, ranging from 1d scalar signals to 3d+t sequences of multi-spectral volumetric images, including 2d color images. http://gmic.eu - David Tschumperlé - dtschump github github 280.3M 2020-05-02 00:55:21 2021-01-26 21:11:01 2019-02-26 18:49:06
ATTEND A fast image processing library with low memory needs - tiled, threaded io - libvips - libvips github github 1.2G 2020-04-30 23:12:44 2021-01-26 13:11:01 2019-01-21 19:51:01
ATTEND The open source mesh processing system - Visual Computing Lab - ISTI - CNR - cnr-isti-vclab github github 211.6M 2020-04-30 14:52:45 2021-01-26 08:51:01 2019-01-21 08:51:01
ATTEND CommonMark parsing and rendering library and program in C - CommonMark - commonmark github github 62.4M 2020-04-27 23:17:41 2021-01-27 03:51:01 2020-01-31 05:54:14
ATTEND Computer Vision Annotation Tool (CVAT), web-based, annotate video and images github github 649.8M 2020-04-26 15:52:04 2021-01-26 11:51:01 2019-01-22 00:31:01
CommonMark spec, with reference implementations in C and JavaScript - CommonMark - commonmark github github 69.5M 2020-04-25 22:51:01 2021-01-27 03:51:01 2020-01-31 05:58:10
ATTEND a language for fast, portable data-parallel computation - Halide - halide github github 1.4G 2020-04-25 16:11:02 2021-01-26 23:51:01 2019-04-30 20:31:12
SpaceWire Light - FreeCores - freecores github github 2.7M 2020-04-25 15:11:06 2021-01-26 23:11:01 2019-03-06 05:13:16
ATTEND The fastest and safest AV1 encoder. - Xiph.Org Foundation - xiph github github 70.4M 2020-04-25 11:08:35 2021-01-26 19:51:01 2019-02-04 01:31:44
ATTEND Scan documents to PDF and other file types, as simply as possible. - Ben Olden-Cooligan - cyanfish github github 51.3M 2020-04-25 09:31:01 2021-01-26 19:11:01 2019-01-25 01:05:26
LZHAM codec - unstable/experimental repo. Much faster compression and higher ratios in extreme mode. This is well tested but isn't the official version just yet, see lzham_codec instead. Still 100% backwards compatible with lzham v1.0. - Rich Geldreich - richgel999 github github 1.1M 2020-04-25 08:31:38 2021-01-26 18:31:01 2019-01-25 01:00:32
Fast Erasure Coding Library for Large Number of Data and Parities - Scality - scality github github 11.5M 2020-04-24 20:51:32 2021-01-26 15:11:02 2019-01-23 04:11:01
-ATTEND A fast and robust image library for Go built on libvips - David Byttow - davidbyttow github github 135.8M 2020-04-24 17:53:04 2020-10-07 13:31:02 2019-01-21 20:31:01
ATTEND Digital logic designer and simulator - REDS institute - reds-heig github github 190.2M 2020-04-24 07:56:10 2021-01-26 07:51:01 2019-01-21 06:31:01
Write SQL for sqlite3 easier with inline variables - Alex - cornerStone-Dev github github 720K 2020-04-24 01:23:28 2021-01-27 04:51:02 2020-03-19 23:56:30
ATTEND Perkeep (née Camlistore) is your personal storage system for life: a way of storing, syncing, sharing, modelling and backing up content. - Perkeep (née Camlistore) - perkeep github github 241.0M 2020-04-13 01:11:02 2021-01-27 04:51:02 2020-03-02 06:30:32
ATTEND RBush — a high-performance JavaScript R-tree-based 2D spatial index for points and rectangles - Vladimir Agafonkin - mourner github github 25.5M 2020-04-11 03:02:30 2021-01-26 06:11:02 2019-01-21 02:11:01
Automated book scanner command & control software - Libreflip - libreflip github github 544K 2020-04-10 12:31:06 2021-01-27 02:31:01 2019-12-04 05:15:45
The Kestrel is a family of home-made computers, built as much as possible on open-source technology, and supporting as much as possible the open-source philosophy. - Kestrel Computer Project - KestrelComputer github github 23.7M 2020-04-10 10:31:01 2021-01-27 00:51:01 2019-04-30 21:41:52
JBIG2 Encoder - Adam Langley - agl github github 6.7M 2020-04-07 06:52:58 2021-01-26 05:31:01 2019-01-21 00:51:01
ATTEND Mirror of git://source.ffmpeg.org/ffmpeg.git@gh - FFmpeg github github 1.9G 2020-04-04 17:16:50 2021-01-27 04:31:01 2020-02-28 05:11:05
Automatically exported from code.google.com/p/picojpeg - Rich Geldreich - richgel999 github github 1016K 2020-04-04 01:51:28 2021-01-26 18:31:01 2019-01-25 00:58:10
The root repo for lowRISC project and FPGA demos. - lowRISC - lowRISC github github 347.2M 2020-03-18 10:26:46 2021-01-26 06:11:02 2019-01-21 02:31:01
ATTEND Photogrammetric Computer Vision Framework - AliceVision - alicevision github github 65.4M 2020-03-16 09:32:55 2021-01-26 08:31:01 2019-01-21 08:11:02
SLIF: JSON ECMA-404 - jddurand github github 576K 2020-03-07 20:31:03 2021-01-27 01:31:01 2019-10-15 02:26:01
Fast multi-threaded content-dependent chunking deduplication for Buffers in C++ with a reference implementation in Javascript. Ships with extensive tests, a fuzz test and a benchmark. - Ronomon - ronomon github github 544K 2020-03-02 21:12:08 2021-01-26 14:51:01 2019-01-23 03:31:01
ATTEND Zstd (de)compressor (http://www.zstd.net/) - FaceBook, C. Bloom github github 95.0M 2020-02-26 05:52:32 2021-01-26 04:51:02 2019-01-20 22:51:01
A formal spec of the RISC-V Instruction Set Architecture, written in Bluespec BSV (executable, synthesizable) - Rishiyur S. Nikhil - rsnikhil github github 7.2M 2020-02-22 15:31:27 2021-01-27 02:51:01 2019-12-10 19:44:19
Pattern-defeating quicksort. - Orson Peters - orlp github github 4.7M 2020-02-10 04:31:01 2021-01-26 15:31:01 2019-01-20 17:51:01
ATTEND Fast, secure, efficient backup program - The restic backup program - restic github github 130.3M 2020-02-06 01:55:24 2021-01-26 05:51:01 2019-01-21 01:31:01
Tesseract Docs - tesseract-ocr github github 16.5M 2020-02-01 15:12:01 2021-01-26 15:11:02 2019-01-23 04:31:01
a library that clusters set of images with poses into clusters for easier mvs - Srivathsan Murali - srivathsanmurali github github 540K 2020-01-10 00:51:14 2021-01-26 12:51:01 2019-01-21 19:31:01
A fork of Ffidl for Tcl 8.6 github github 2.7M 2020-01-07 18:26:47 2021-01-27 00:11:01 2019-04-30 21:33:16
ATTEND Lossy PNG compressor — pngquant command based on libimagequant library - Kornel - kornelski github github 157.6M 2020-01-01 02:11:45 2021-01-26 16:31:02 2019-01-20 20:51:01
a simple image processing benchmark implemented in a range of image processing packages - libvips - libvips github github 936K 2019-12-16 20:25:26 2021-01-26 13:11:01 2019-01-21 19:51:01
SLIF: YAML - MarpaX::ESLIF - jddurand github github 440K 2019-12-10 03:11:01 2021-01-27 01:31:01 2019-10-15 02:25:59
Portable audio output library - Xiph.Org Foundation - xiph github github 4.0M 2019-12-09 19:17:36 2021-01-26 19:51:01 2019-02-03 22:19:47
Local adaptive image binarization - Christian Wolf - chriswolfvision github github 10.1M 2019-12-08 22:57:18 2021-01-26 07:51:01 2019-01-21 06:31:01
SLIF: C# ECMA-334 5th Edition - jddurand github github 2.2M 2019-11-09 23:51:51 2021-01-27 01:11:01 2019-10-15 02:25:57
Rolling Hash C++ Library - Daniel Lemire - lemire github github 1.9M 2019-11-08 19:31:27 2021-01-26 06:51:01 2019-01-21 04:11:01
Mirror Management - Andreas Kupries github github 4.2M 2019-11-05 16:32:49 2021-01-26 04:51:02 2019-01-20 22:31:01
ATTEND Mirror Management - Andreas Kupries fossil fossil 2.6M 2019-11-05 16:32:44 2021-01-26 04:51:02 2019-01-20 22:31:01
gradient-halide - Jonathan Ragan-Kelley - jrk github github 235.8M 2019-10-30 21:51:18 2021-01-26 23:31:01 2019-04-30 20:29:19
Automatic perspective correction on photos of A4 papers using Canny detector and Hough transform with opencv-python. - Joyee Cheung - joyeecheung github github 1.0M 2019-10-08 08:31:49 2021-01-26 10:11:01 2019-01-21 12:11:01
Untethered (stand-alone) FPGA implementation of the lowRISC SoC - lowRISC - lowRISC github github 16.2M 2019-10-03 20:12:07 2021-01-26 06:31:01 2019-01-21 02:51:01
Document Image Dewarping - Taeho - xellows1305 github github 44.0M 2019-10-02 17:51:14 2021-01-26 10:51:01 2019-01-21 13:11:01
A comparison between different integer set techniques - Roaring bitmaps: A better compressed bitset - RoaringBitmap github github 1.3M 2019-09-29 15:52:14 2021-01-26 06:51:01 2019-01-21 04:11:01
libvips plugin for running gmic commands - John Cupitt - jcupitt github github 4.2M 2019-09-28 17:31:23 2021-01-26 15:31:01 2019-01-20 18:11:02
RaptorQ RFC6330 C++11 implementation - Luca Fulchir - LucaFulchir github github 11.6M 2019-09-28 16:11:18 2021-01-26 14:51:01 2019-01-23 03:31:01
use OpenCV perspective - Kaixin,Liu - 023proz github github 10.3M 2019-09-28 07:18:43 2021-01-26 10:11:01 2019-01-21 11:51:01
Some examples of photogrammetry - John Davies - john-davies github github 1.3G 2019-09-28 07:18:38 2021-01-26 10:11:01 2019-01-21 11:51:01
Fast implementation of Content Defined Chunking (CDC) based on a rolling Rabin Checksum in C. - Alexander Neumann - fd0 github github 1.2M 2019-07-27 08:51:09 2021-01-26 12:11:01 2019-01-21 17:51:01
book-repository-tools - Alexander Danilov - daapp github github 512K 2019-07-23 20:31:37 2021-01-26 08:11:02 2019-01-21 07:11:01
3D line art engine. - Michael Fogleman - fogleman github github 4.7M 2019-07-20 11:52:53 2021-01-26 05:51:01 2019-01-21 01:11:01
Display images in the terminal - Iñigo López de Heredia - ichinaski github github 2.4M 2019-07-19 22:31:59 2021-01-26 18:51:01 2019-01-25 01:04:24
A library for performing Content-Defined Chunking (CDC) on data streams. - Vincent Cantin - green-coder github github 928K 2019-07-17 19:51:03 2021-01-26 11:51:01 2019-01-21 17:31:01
ATTEND Shader-Like Mathematical Expression JIT Engine for C++ Language - Petr Kobalicek - kobalicek github github 828K 2019-07-17 03:51:41 2021-01-26 23:51:01 2019-04-30 21:20:06
C library implementing the ridiculously fast CLHash hashing function - Daniel Lemire - lemire github github 1.9M 2019-07-06 14:51:13 2021-01-26 06:51:01 2019-01-21 04:11:01
ATTEND AliceVisionDependencies - AliceVision - alicevision github github 732K 2019-07-03 06:07:17 2021-01-26 23:51:01 2019-04-30 21:18:11
omnidirectional camera calibration toolbox - Baisheng - jiuerbujie github github 75.5M 2019-06-19 21:31:16 2021-01-26 11:51:01 2019-01-21 15:51:01
Port of LLVM/Clang C compiler to Nyuzi parallel processor architecture - Jeff Bush - jbush001 github github 445.5M 2019-06-02 15:11:01 2021-01-27 00:31:01 2019-04-30 21:33:32
Locality Sensitive Hashing for Go (Multi-probe LSH, LSH Forest, basic LSH) - Eric Zhu - ekzhu github github 956K 2019-06-02 03:14:19 2021-01-26 18:31:01 2019-01-25 00:03:01
Implicit Shape Representation for 3D Tracking and Reconstruction - Carl Yuheng Ren - carlren github github 240.5M 2019-05-27 14:17:14 2021-01-26 22:11:01 2019-03-01 21:17:05
- OpenNI2 - Ziv Hendel - OpenNI github github 53.1M 2019-04-05 20:31:10 2019-10-20 12:11:02 2019-01-21 10:31:02
RISC-V XBitmanip Extension - Clifford Wolf - cliffordwolf github github 9.6M 2019-03-23 12:51:03 2021-01-26 21:31:01 2019-02-26 18:52:33
On Ends-to-Ends Encryption: Asynchronous Group Messaging with Strong Security Guarantees - Facebook Research - facebookresearch github github 2.6M 2019-03-17 01:52:39 2021-01-26 19:31:01 2019-01-25 05:37:49
rocketchip uncore - lowRISC - lowRISC github github 2.4M 2019-03-14 23:31:52 2021-01-26 06:51:01 2019-01-21 03:31:01
Generate an ePub book from a simple plaintext descriptor - nabijaczleweli - nabijaczleweli github github 1.9M 2019-03-09 10:11:02 2021-01-26 18:51:01 2019-01-25 01:03:34
The C++ implementation of Multi-H algorithm, which is a multi-plane fitting technique. If you use this work for Academic purposes, please cite Barath, D. and Matas, J. and Hajder, L., Multi-H: Efficient Recovery of Tangent Planes in Stereo Images. 27th British Machine Vision Conference, 2016@gh - danini github github 80.0M 2019-02-27 13:54:01 2021-01-26 16:51:01 2019-01-20 21:51:01
SIMD-accelerated base64 codecs - Daniel Lemire - lemire github github 5.3M 2019-02-20 11:33:14 2021-01-26 07:11:01 2019-01-21 04:51:02
- OpenNI - Ziv Hendel - OpenNI github github 144.3M 2019-02-07 17:11:02 2019-10-20 12:11:02 2019-01-21 10:51:02
Specification of the compressed-bitmap Roaring format - Roaring bitmaps: A better compressed bitset - RoaringBitmap github github 1.7M 2019-01-24 02:52:31 2021-01-26 07:11:01 2019-01-21 04:31:02
4x4 ordered dither - John Cupitt - jcupitt github github 584K 2019-01-18 05:10:38 2021-01-26 15:31:01 2019-01-20 18:11:02
Tiny ISO-compliant C++ EXIF and XMP parsing library for JPEG. - cDc - cdcseacave github github 9.3M 2019-01-11 19:36:56 2021-01-26 12:51:01 2019-01-21 19:11:01
Leopard-RS : O(N Log N) MDS Reed-Solomon Block Erasure Code for Large Data - Chris Taylor - catid github github 4.2M 2019-01-10 09:14:07 2021-01-26 14:31:01 2019-01-23 03:11:01
Experiment: Fast finite field Fp=2^61-1 in C++ - Chris Taylor - catid github github 232K 2019-01-10 09:12:44 2021-01-26 14:11:02 2019-01-23 02:31:01
Experiment: Fast finite field arithmetic modulo Solinas prime Fp=2^64-2^32+1 in C++ - Chris Taylor - catid github github 608K 2019-01-10 09:12:41 2021-01-26 14:11:02 2019-01-23 02:11:02
Tabby - Strong, Fast, and Portable Cryptographic Signatures, Handshakes, and Password Authentication - Chris Taylor - catid github github 4.2M 2019-01-10 09:02:27 2021-01-26 14:11:02 2019-01-23 01:51:02
Streaming Deduplication Package for Go - Klaus Post - klauspost github github 840K 2019-01-10 08:59:42 2021-01-26 13:51:01 2019-01-22 05:31:01
A version of the AKAZE feature detection and description that has removed the OpenCV dependency - Chris Sweeney - sweeneychris github github 4.8M 2019-01-09 20:47:20 2021-01-26 13:31:01 2019-01-22 05:11:01
mavmap examples - mavmap github github 86.9M 2019-01-09 20:45:46 2021-01-26 13:31:01 2019-01-21 21:31:01
Structure-from-Motion for MAV image sequences - mavmap github github 2.0M 2019-01-09 20:45:08 2021-01-26 13:31:01 2019-01-21 21:31:01
RANSAC Template Library - Sunglok Choi - sunglok github github 916K 2019-01-09 20:32:17 2021-01-26 13:31:01 2019-01-21 20:51:01
Line3D - Multi-View Stereo using Line Segments - Manuel Hofer - manhofer github github 632K 2019-01-09 20:16:34 2021-01-26 12:51:01 2019-01-21 19:31:01
Progressive 3D Modeling All the Way - Alex Locher - alexlocher github github 512K 2019-01-09 20:00:08 2021-01-26 12:31:01 2019-01-21 18:51:01
Progressive Prioritized Multi-view Stereo - Alex Locher - alexlocher github github 4.9M 2019-01-09 19:59:26 2021-01-26 12:31:01 2019-01-21 18:31:01
Multiple ways of chunking for data deduplication: Fixed size chunking, Content defined chunking, and File based chunking. - FanZhang - fanzhang312 github github 892K 2019-01-09 19:46:17 2021-01-26 12:11:01 2019-01-21 18:11:01
Rabin hashing and content-defined chunking for Go - Austin Clements - aclements github github 368K 2019-01-09 19:45:58 2021-01-26 12:11:01 2019-01-21 17:51:01
Content-Defined Chunking, after rsync / Rabin fingerprinting / FastCDC / Ronomon's algorithm. - Tony Garnock-Jones - tonyg github github 288K 2019-01-09 19:45:56 2021-01-26 12:11:01 2019-01-21 17:31:01
ATTEND My personal CLI Photo Manager - Vincent Cantin - green-coder github github 188K 2019-01-09 19:45:53 2021-01-26 12:11:01 2019-01-21 17:31:01
An implementation of Content Defined Chunking(CDC) - baixiangcpp - baixiangcpp github github 348K 2019-01-09 19:45:50 2021-01-26 11:51:01 2019-01-21 16:11:02
Implementations of various CDC (Content Defined Chunking) algorithms - Christopher James Halse Rogers - RAOF github github 384K 2019-01-09 19:45:48 2021-01-26 11:51:01 2019-01-21 16:11:02
Matlab codes for Rectification and 3D Reconstruction of Curved Document Images (CVPR 11) - Yuandong Tian - yuandong-tian github github 4.0M 2019-01-05 17:02:43 2021-01-26 11:51:01 2019-01-21 15:51:01
Peak detection using adaptive thresholding - ashish-bagri github github 196K 2019-01-05 17:01:59 2021-01-26 11:31:01 2019-01-21 15:31:01
SeamCarving Attempt using NumPy - Nathan Pucheril - nathanpucheril github github 10.6M 2019-01-05 17:01:36 2021-01-26 11:31:01 2019-01-21 15:31:01
A try at basic adaptive thresholding - Nathan Pucheril - nathanpucheril github github 768K 2019-01-05 17:01:16 2021-01-26 11:31:01 2019-01-21 15:11:02
adaptive-thresholding - JongChan Choi - disjukr github github 376K 2019-01-05 17:00:56 2021-01-26 11:31:01 2019-01-21 15:11:02
Adaptive Thresholding Using the Integral Image - phryniszak github github 920K 2019-01-05 17:00:11 2021-01-26 11:31:01 2019-01-21 14:51:01
Adaptive Thresholds for Feature Extraction - Lawrence Livermore National Laboratory - LLNL github github 114.1M 2019-01-05 16:57:42 2021-01-26 11:31:01 2019-01-21 14:51:01
Combination of Gamma Gaussian Mixture model and topological FDR for thresholding fMRI statistical maps. - Chris Gorgolewski - chrisfilo github github 4.0M 2019-01-05 16:57:15 2021-01-26 11:11:01 2019-01-21 14:51:01
Using FCN to segment the book's content and background, then dewarping the pages - RaymondMcGuire github github 548K 2019-01-05 16:56:22 2021-01-26 11:11:01 2019-01-21 14:31:02
mid-line detection, cropping into 2 pages, binarisation, etc. enhancements applied to book image - srinathnaik github github 45.6M 2019-01-05 16:55:23 2021-01-26 11:11:01 2019-01-21 14:31:02
decapod calibration - Decapod github github 92.8M 2019-01-05 01:49:58 2021-01-26 11:11:01 2019-01-21 14:11:01
decapod - Decapod github github 944K 2019-01-05 01:49:54 2021-01-26 11:11:01 2019-01-21 14:11:01
DECAPOD STEREO DEWARPING - Decapod github github 320K 2019-01-05 01:49:52 2021-01-26 11:11:01 2019-01-21 14:11:01
Software to dewarp book picture images, and for building models of ruled surfaces - Nicolau Werneck - nlw0 github github 284K 2019-01-05 01:49:49 2021-01-26 11:11:01 2019-01-21 13:51:01
A simple GUI for binding post processed scanned pages into digital documents - Blender3D github github 83.3M 2019-01-05 01:48:22 2021-01-26 10:51:01 2019-01-21 13:51:01
Dewarps books with lasers? - Blender3D github github 18.1M 2019-01-05 01:48:09 2021-01-26 10:51:01 2019-01-21 13:51:01
Raspberry Pi image for controlling a DIYBookScanner via spreads - DIY Book Scanner - DIYBookScanner github github 5.6M 2019-01-05 01:47:48 2021-01-26 10:51:01 2019-01-21 13:31:01
Experimental methods for dewarping document images based on the use of lasers. - Jonathon Duerig - duerig github github 40.4M 2019-01-05 01:45:44 2021-01-26 10:51:01 2019-01-21 13:31:01
Scene text rectification using glyph and character alignment properties - Taeho - xellows1305 github github 7.8M 2019-01-05 01:45:33 2021-01-26 10:51:01 2019-01-21 13:11:01
Gabor image fitting in FULL COLOR - Matt Zucker - mzucker github github 324K 2019-01-05 01:44:52 2021-01-26 10:31:02 2019-01-21 12:51:01
Image fitting with Gabor functions - Matt Zucker - mzucker github github 1.0M 2019-01-05 01:44:48 2021-01-26 10:31:02 2019-01-21 12:51:01
Panoramic image stitching using SIFT and RANSAC in matlab. - Joyee Cheung - joyeecheung github github 876K 2019-01-05 01:39:23 2021-01-26 10:31:02 2019-01-21 12:31:02
Python implementation of \"Single Image Haze Removal Using Dark Channel Prior\" - Joyee Cheung - joyeecheung github github 3.3M 2019-01-05 01:38:57 2021-01-26 10:31:02 2019-01-21 12:31:02
Binary image denoising using MRF, Ising model, and simulated annealing. - Joyee Cheung - joyeecheung github github 828K 2019-01-05 01:38:41 2021-01-26 10:11:01 2019-01-21 12:11:01
perspective correction for document image - Browny Lin - browny github github 788K 2019-01-05 01:38:25 2021-01-26 10:11:01 2019-01-21 12:11:01
DAISY: A Fast Local Descriptor for Dense Matching - engin tola - etola github github 1.9M 2019-01-04 23:07:36 2021-01-26 09:11:01 2019-01-21 09:31:01
Submission for DIBCO 2017 - Christopher Tensmeyer - ctensmeyer github github 148.4M 2019-01-04 22:48:19 2021-01-26 08:51:01 2019-01-21 08:51:01
The multi-view reconstruction library - Keir Mierle - keir github github 13.6M 2019-01-04 22:40:57 2021-01-26 08:51:01 2019-01-21 08:31:01
An implementation of some binarization methods such as Niblack, Sauvola, Wolfjolion and one based on feature space partitioning - Caio Almeida - caiosba github github 5.2M 2019-01-04 22:40:31 2021-01-26 08:51:01 2019-01-21 08:31:01
Structure from Motion (SfM) for Unordered Image Collections - TheFrenchLeaf - TheFrenchLeaf github github 19.1M 2019-01-04 22:24:48 2021-01-26 08:31:01 2019-01-21 08:11:02
Lempel-Zev-Welch Compression - Sasank Chilamkurthy - chsasank github github 10.1M 2019-01-04 22:24:40 2021-01-26 08:31:01 2019-01-21 07:51:01
rename photo according to exif data - Alexander Danilov - daapp github github 196K 2019-01-04 22:24:38 2021-01-26 08:31:01 2019-01-21 07:51:01
Rectification tool of E-FOTO - ArcheOS - archeos github github 240K 2019-01-04 22:22:02 2021-01-26 08:11:02 2019-01-21 07:31:01
Document image binarization for Project 3A @Mines_Nancy - ZP Jiang - 0x333333 github github 24.6M 2019-01-04 22:21:32 2021-01-26 08:11:02 2019-01-21 07:31:01
binarization_2017 - Christopher Tensmeyer - ctensmeyer github github 296.2M 2019-01-04 22:16:21 2021-01-26 08:11:02 2019-01-21 07:11:01
Rectification module from e-foto photogrammetry suit. The module seems to be abandoned, but it is very useful for 2d archaeological photomapping through the <Metodo Aramus> - ArcheOS - archeos github github 988K 2019-01-04 22:15:47 2021-01-26 08:11:02 2019-01-21 06:51:01
Python implementation of BING Objectness method from <BING: Binarized Normed Gradients for Objectness Estimation at 300fps> - alessandroferrari github github 1.9M 2019-01-04 22:15:27 2021-01-26 08:11:02 2019-01-21 06:51:01
Fast python/numpy implementation of the elliptic fourier descriptors for shapes recognition - alessandroferrari github github 400K 2019-01-04 22:10:35 2021-01-26 07:51:01 2019-01-21 06:51:01
The earliest versions of the very first c compiler known to exist in the wild written by the late legend himself dmr. - Roger - mortdeus github github 8.9M 2019-01-04 22:03:11 2021-01-26 07:51:01 2019-01-21 06:11:01
Syzygy suite of tools for instrumentation of COFF object files and PE binaries - Rui Ueyama - rui314 github github 331.5M 2019-01-04 21:56:51 2021-01-26 07:51:01 2019-01-21 06:11:01
RISC-V support for LLVM projects (LLVM, Clang, ...) - lowRISC - lowRISC github github 4.2M 2019-01-03 06:31:13 2021-01-26 06:31:01 2019-01-21 03:11:01
Contains commonly used UVM components (agents, environments and tests) - pulp-platform github github 1.6M 2018-12-10 17:59:10 2021-01-26 06:11:02 2019-01-21 02:11:01
A massaging of DJB's various client libraries into something that's easy to build and use - Adam Langley - agl github github 192K 2018-12-10 17:40:03 2021-01-26 06:11:02 2019-01-21 01:51:01
Isolate and remove the background gradient from images of paper. - Michael Fogleman - fogleman github github 688K 2018-12-10 17:09:23 2021-01-26 05:31:01 2019-01-21 00:51:01
Critbit trees in C - Adam Langley - agl github github 2.3M 2018-12-05 05:45:18 2021-01-26 05:31:01 2019-01-21 00:51:01
Implementations of a fast Elliptic-curve Diffie-Hellman primitive - Adam Langley - agl github github 4.7M 2018-12-05 05:43:46 2021-01-26 05:31:01 2019-01-21 00:31:02
Project 2 of Brown University's CS 143 (Intro to CV) - Marisa Reddy github github 22.2M 2018-11-30 18:28:20 2021-01-26 05:31:01 2019-01-21 00:31:02
Interactive affine and metric image rectification in Python - Evan Levine git git 9.1M 2018-11-30 18:27:14 2021-01-26 05:31:01 2019-01-21 00:31:02
Python implementations of clustering algorithms - Marisa Reddy github github 2.6M 2018-11-30 18:27:09 2021-01-26 05:31:01 2019-01-21 00:11:02
A simple test image generator - Marisa Reddy github github 368K 2018-11-30 18:27:02 2021-01-26 05:11:01 2019-01-21 00:11:02
Two dimensional implementation of the TVD DG method - Ivan Tsybulin github github 192K 2018-11-30 18:26:51 2021-01-26 05:11:01 2019-01-21 00:11:02
Python implementation of basic and Otsu thresholding algorithms. - Marisa Reddy github github 2.6M 2018-11-30 18:21:24 2021-01-26 05:11:01 2019-01-20 23:51:02
Simple example of ImageMagick usage - Ivan Tsybulin github github 292K 2018-11-30 18:19:51 2021-01-26 05:11:01 2019-01-20 23:51:02
Hough-like transform using CUDA and ImageMagick - Ivan Tsybulin github github 224K 2018-11-30 18:19:34 2021-01-26 05:11:01 2019-01-20 23:51:02
A tool for converting poor document photos or scans into clear black and white images - Ivan Tsybulin github github 448K 2018-11-29 09:18:53 2021-01-26 05:11:01 2019-01-20 23:31:01
ATTEND Local Energy based Shape Histogram (LESH) feature descriptor code - ssarfraz github github 744K 2018-11-29 09:18:51 2021-01-26 04:51:02 2019-01-20 23:31:01
Division-free Arith Coder - C.Bloom github github 448K 2018-11-26 05:49:50 2021-01-26 04:51:02 2019-01-20 22:31:01
ZXing ("Zebra Crossing") barcode scanning library for Java, Android - ZXing Project - zxing github github 238.9M 2021-01-24 22:07:49
Python 3 module to generate QR Codes - Michael Nooner - mnooner256 github github 2.8M 2021-01-24 22:04:36
tzint - tcl package for libzint barcode encoding library / clone of my fosssil repository - ALX - aschoepe github github 716K 2021-01-24 22:04:33
A QR-Code Scanner, written in C++ and using the OpenCV library, which was developed as part of a university course "Computer Vision". - Philipp Schofield - PhilS94 github github 143.2M 2021-01-24 22:04:08
A Python based QR code extractor that uses OpenCV to detect and extract multiple QR codes in any orientation. - MikhailGordeev github github 556K 2021-01-24 22:03:40
QR decoder library - Daniel Beer - dlbeer github github 2.7M 2021-01-24 22:01:25
Detect and decode QR Codes, written in 100% Rust. - Mark Arts - piderman314 github github 5.6M 2021-01-24 22:00:58
QR Code Pattern Recognition and Message Extraction - Amirsina Torfi - astorfi github github 41.0M 2021-01-24 22:00:32
Raspberry Pi-powered analog film automatic scanner@gh - bezineb5 github github 4.6M 2021-01-24 22:00:13
round robin arbiter - FreeCores - freecores github github 320K 2021-01-24 21:59:57
Linear Algebra is a Free undergraduate text git git 2.3G 2021-01-05 21:34:05
Kd-Tree library for kNN and range queries in plain C++98 - cdalitz github github 352K 2021-01-05 21:24:02
OpenSource Book Scanner application for digitizing books with two cameras. - Ralf Eichinger - datazuul github github 19.2M 2021-01-05 21:21:56
odm360 - OpenDroneMap - OpenDroneMap github github 29.4M 2021-01-05 21:21:43
ATTEND A command line toolkit to generate maps, point clouds, 3D models and DEMs from drone, balloon or kite images. 📷 - OpenDroneMap - OpenDroneMap github github 1.1G 2021-01-05 21:21:06
Speed Test Comparing Image Processing Routines - Peter Abeles - lessthanoptimal github github 1.5M 2021-01-05 21:20:59
FastAC - Amir Said's Arithmetic and Huffman coding library, example code, and documentation - Rich Geldreich - richgel999 github github 744K 2020-12-23 20:15:00
A test suite for libexif and exif - libexif Project - libexif github github 864K 2020-12-23 20:11:19
A small command-line utility to show EXIF information hidden in JPEG files - libexif Project - libexif github github 2.0M 2020-12-23 20:10:57
Instruction accurate instruction set simulator for RISC-V, MIPS and ARM-v6m - ultraembedded github github 1.2M 2020-12-07 17:38:24
MPX is a open-source CPU which can execute code compiled for MIPS-I ISA - ultraembedded github github 476K 2020-12-07 17:38:20
High throughput JPEG decoder in Verilog for FPGA - ultraembedded github github 896K 2020-12-07 17:38:15
HW JPEG decoder wrapper with AXI-4 DMA - ultraembedded github github 288K 2020-12-07 17:38:13
Very basic real time operating system for embedded systems - ultraembedded github github 648K 2020-12-07 17:38:09
MMC (and derivative standards) host controller - ultraembedded github github 332K 2020-12-07 17:38:07
Test projects for the OrangeCrab ECP5 FPGA board - ultraembedded github github 536K 2020-12-07 17:38:04
Minimal DVI / HDMI Framebuffer - ultraembedded github github 612K 2020-12-07 17:37:57
A DDR3 memory controller in Verilog for various FPGAs - ultraembedded github github 1020K 2020-12-07 17:37:37
AXI-4 RAM Tester Component - ultraembedded github github 328K 2020-12-07 17:37:34
Projects for the ECPiX-5 - a ECP5 FPGA board - ultraembedded github github 1016K 2020-12-07 17:37:32
Test code / bitstreams for the LambdaConcept ECPIX-5 FPGA board - ultraembedded github github 792K 2020-12-07 17:37:29
USB -> AXI Debug Bridge - ultraembedded github github 616K 2020-12-07 17:37:20
USB serial device (CDC-ACM) - ultraembedded github github 476K 2020-12-07 17:37:12
Basic USB-CDC device core (Verilog) - ultraembedded github github 576K 2020-12-07 17:37:04
USB capture IP - ultraembedded github github 416K 2020-12-07 17:36:46
Basic USB 1.1 Host Controller for small FPGAs - ultraembedded github github 680K 2020-12-07 17:36:40
A RISC-V SBC based around the LambdaConcept USB2Sniffer FPGA board - ultraembedded github github 2.3M 2020-12-07 17:36:33
SPI-Flash XIP Interface (Verilog) - ultraembedded github github 472K 2020-12-07 17:35:31
Basic Peripheral SoC (SPI, GPIO, Timer, UART) - ultraembedded github github 836K 2020-12-07 17:35:22
ULPI Link Wrapper (USB Phy Interface) - ultraembedded github github 420K 2020-12-07 17:35:18
USB Full Speed PHY - ultraembedded github github 328K 2020-12-07 17:35:04
libfirm - graph visualization tooling git git 18.3M 2020-12-04 20:56:10
libfirm C backend git git 524K 2020-12-04 20:56:04
libfirm testsuite git git 25.7M 2020-12-04 20:51:16
libfirm build system git git 1.7M 2020-12-04 20:50:56
libfirm C frontend git git 31.2M 2020-12-04 20:47:43
Matlab & mex implementation of "Intrinsic Image Decomposition Using Structure-Texture Separation and Surface Normals", ECCV 2014 - Junho Jeon - JunhoJeon github github 5.6M 2020-12-04 19:47:35
Implementation codes of CVPR 2018 Oral paper \"Revisiting Deep Intrinsic Image Decompositions\" - Qingnan Fan - fqnchina github github 154.4M 2020-12-04 19:43:32
Code for executing the Single-Image Intrinsic Decomposition algorithm presented in the paper: Unsupervised Deep Single-Image Intrinsic Decomposition using Illumination-Varying Image Sequences - Kenneth Vanhoey - kvanhoey github github 8.1M 2020-12-04 19:43:23
C++ implementation of Retinex algorithm - MaksimGordin - GordinMaxim github github 320K 2020-12-04 19:43:17
Python implementation of two low-light image enhancement techniques via illumination map estimation - Souhaib Attaiki - pvnieo github github 3.3M 2020-12-04 19:42:48
Retinex Intrinsic Images in C++ - Lukas Murmann - lmurmann github github 3.7M 2020-12-04 19:42:35
paper implement - BBuf github github 3.6M 2020-12-04 19:39:57
Retinex Algorithms: C++ source code of SSR, MSR, MSRCR algorithm - Chandler Geng - upcAutoLang github github 3.6M 2020-12-04 19:38:09
Python implementation of multi scale retinex with color restoration - Zheng Liu - dongb5 github github 1.3M 2020-12-04 19:24:54
experiments with intrinsic image decomposition - akanazawa github github 222.3M 2020-12-04 19:20:24
This is the CGIntrinsics implementation described in the paper "CGIntrinsics: Better Intrinsic Image Decomposition through Physically-Based Rendering, Z. Li and N. Snavely, ECCV 2018". - Zhengqi Li - zhengqili github github 1.7M 2020-12-04 18:39:34
For paper "Intrinsic Image Transformation Via Scale Space Decomposition" - liygcheng - liygcheng github github 5.7M 2020-12-04 18:39:30
A repository that contains implementation of Intrinsic Image Decomposition, based on Intrinsic Images in the Wild, a SIGGRAPH 2014 paper by Sean Bell, Kavita Bala and Noah Snavely. - Soumyasis Gun - DefUs3r github github 25.6M 2020-12-04 18:39:04
miniSpartan6+ (Spartan6) FPGA based MP3 Player - ultraembedded github github 900K 2020-12-04 18:09:16
Audio controller (I2S, SPDIF, DAC) - ultraembedded github github 544K 2020-12-04 18:09:04
Fixed-point MP3 decoder (RISC-V port) - ultraembedded github github 908K 2020-12-04 18:08:53
SDRAM controller with AXI4 interface - ultraembedded github github 748K 2020-12-04 18:08:29
Small footprint, low dependency, C code implementation of a FAT16 & FAT32 driver. - ultraembedded github github 596K 2020-12-04 18:08:24
AltOr32 - Alternative Lightweight OpenRisc CPU - ultraembedded github github 2.3M 2020-12-04 18:08:10
Projects for the Scarab Minispartan6+ FPGA board - ultraembedded github github 432K 2020-12-04 18:08:03
USB2Sniffer: High Speed USB 2.0 capture (for LambdaConcept USB2Sniffer hardware) - ultraembedded github github 1.5M 2020-12-04 18:07:55
Basic RISC-V Test SoC - ultraembedded github github 6.9M 2020-12-04 18:07:37
Various HDL (Verilog) IP Cores - ultraembedded github github 3.7M 2020-12-04 18:05:20
RISC-V CPU Core (RV32IM) - ultraembedded github github 6.9M 2020-12-04 18:04:07
32-bit Superscalar RISC-V CPU - ultraembedded github github 8.4M 2020-12-04 18:03:19
720p FPGA Media Player (RISC-V + Motion JPEG + SD + HDMI on an Artix 7) - ultraembedded github github 13.2M 2020-12-04 18:02:55
iterative_stats github github 320K 2020-11-24 18:25:39
runningmaxmin github github 1.3M 2020-11-24 18:25:24
movingminmax github github 912K 2020-11-24 18:25:18
pythonmaxmin github github 308K 2020-11-24 18:25:12
Go library for reading and writing ESRI Shapefiles. Pure Golang implementation based on the ESRI Shapefile technical description. - Jonas Palm - jonas-p git git 256K 2020-11-24 18:18:04
Fast rolling and expanding window statistics in [R] using single-pass algorithms - andrewuhl github github 416K 2020-11-24 18:06:07
Median Filter - Jukka Suomela - suomela github github 1.2M 2020-11-24 18:05:14
2D Median Filter for Floating-Point Data - Jukka Suomela - suomela github github 7.0M 2020-11-24 18:05:07
A tool to extract data from Open Street Map (OSM) to build the boundaries of the world's timezones. - Evan Siroky - evansiroky github github 5.7M 2020-11-24 18:00:54
ATTEND mathemaTcl - Wrapping Netlib et al fossil fossil 10.4M 2020-11-24 17:16:19
CalculateVariance1Pass - Alan Wolfe - Atrix256 github github 240K 2020-11-24 17:05:03
C++ to go with blog post https://blog.demofox.org/2020/01/05/fir-audio-data-filters/ - Alan Wolfe - Atrix256 github github 352K 2020-11-24 17:05:01
PoissonBlending - Alan Wolfe - Atrix256 github github 13.9M 2020-11-24 17:04:46
Simple command line project to dft/idft using simple_fft - Alan Wolfe - Atrix256 github github 36.8M 2020-11-24 17:04:21
Working with images in frequency space - Alan Wolfe - Atrix256 github github 1.7M 2020-11-24 17:04:18
C++ implementations of https://www.analyticsvidhya.com/blog/2017/06/a-comprehensive-guide-for-linear-ridge-and-lasso-regression/ - Alan Wolfe - Atrix256 github github 236K 2020-11-24 17:04:16
Minimal C++ library that allows you to define data schemas which then can be read or written in JSON or binary. - Alan Wolfe - Atrix256 github github 568K 2020-11-24 17:04:07
XKCP - Extracted code for KangarooTwelve (K12) - XKCP github github 1.3M 2020-11-24 17:03:53
Arithmetic Coding and PPM compression - Janne Kataja - jkataja github github 644K 2020-11-24 16:38:56
string sorting - Mikko Sysikaski - sisu github github 748K 2020-11-24 16:38:52
Burrows-Wheeler transformation based compression program - Pekka Mikkola - pjmikkol github github 2.2M 2020-11-24 16:38:43
pikchr-js - Andrei - abetlen github github 460K 2020-11-24 16:38:41
Online Pikchr diagram editor using Pikchr.js - Andrei - abetlen github github 1.2M 2020-11-24 16:38:39
watershed - Gaëtan Lehmann - glehmann github github 6.2M 2020-11-24 16:38:30
ITKSkeleton - Gaëtan Lehmann - glehmann github github 500K 2020-11-24 16:38:25
vanHerkGilWerman - Gaëtan Lehmann - glehmann github github 540K 2020-11-24 16:38:23
Herk-Gil-Werman(HGW) fast algorithm for morphology@gh - cuekoo github github 5.3M 2020-11-24 09:11:01
A library for playing with colors in go (golang). - Lucas Beyer - lucasb-eyer git git 716K 2020-10-28 05:35:01
Machine learning algorithm implementations and explanations - Simon Ward-Jones - simonwardjones github github 2.6M 2020-10-23 21:08:49
Awesome-ImageHarmonization - Subeesh Vasu - subeeshvasu github github 252K 2020-10-23 21:08:47
Convergent Replicated Data Types - Kyle Kingsbury - aphyr github github 2.1M 2020-10-23 21:05:04
Nightlight: Astronomic Image Processing - Markus Noga - mlnoga github github 572K 2020-10-23 20:50:01
A registry of Datasette instances - Simon Willison - simonw github github 820K 2020-10-06 18:00:25
Datasette plugin for configuring permission checks using SQL queries - Simon Willison - simonw github github 552K 2020-10-06 18:00:14
Datasette plugin adding a /-/psutil debugging endpoint - Simon Willison - simonw github github 352K 2020-10-06 18:00:12
Datasette plugin for dumping out the ASGI scope - Simon Willison - simonw github github 368K 2020-10-06 18:00:10
Always allow access to /-/permissions, for debugging - Simon Willison - simonw github github 268K 2020-10-06 18:00:08
Ensure specific tables and views exist on startup - Simon Willison - simonw github github 512K 2020-10-06 18:00:06
Utilities to help run Datasette on Glitch - Simon Willison - simonw github github 296K 2020-10-06 18:00:04
Datasette plugin providing a UI for writing to the database - Simon Willison - simonw github github 372K 2020-10-06 18:00:02
Some examples plugins for Datasette - Simon Willison - simonw github github 548K 2020-10-06 17:59:49
Datasette plugin for authenticating access using API tokens - Simon Willison - simonw github github 772K 2020-10-06 17:59:47
Create a local copy of database files from a Datasette instance - Simon Willison - simonw github github 732K 2020-10-06 17:59:46
Datasette plugin for serving files from disk based on a SQL query - Simon Willison - simonw github github 244K 2020-10-06 17:59:43
Unsafe permissions for datasette-insert - allows all actions without authentication - Simon Willison - simonw github github 264K 2020-10-06 17:59:41
Datasette plugin for inserting and updating data - Simon Willison - simonw github github 220K 2020-10-06 17:59:39
Datasette plugin that lets users save and execute queries - Simon Willison - simonw github github 660K 2020-10-06 17:59:31
Datasette plugin that shows the schema version of every attached database - Simon Willison - simonw github github 268K 2020-10-06 17:59:14
Load shapefiles into a SQLite (optionally SpatiaLite) database - Simon Willison - simonw github github 224K 2020-10-06 17:59:05
Datasette plugin for displaying error tracebacks - Simon Willison - simonw github github 320K 2020-10-06 17:57:47
Datasette plugin for visualizing data using Vega - Simon Willison - simonw github github 584K 2020-10-06 17:57:42
Custom SQL function for making DNS lookups - Simon Willison - simonw github github 400K 2020-10-06 17:57:38
Datasette plugin for outputting iCalendar files - Simon Willison - simonw github github 752K 2020-10-06 17:57:29
Plugin adding backup options to Datasette - Simon Willison - simonw github github 344K 2020-10-06 17:57:27
Trigram tokenizer module for SQLite FTS5 - Simon Willison - simonw github github 404K 2020-10-06 17:57:25
libpng - Rui Ueyama - rui314 github github 17.1M 2020-10-06 08:01:09
Website hosting the strictyaml specification. - Colm O'Connor - crdoconnor github github 144K 2020-10-06 07:57:03
e-maxx-eng-auto - e-maxx-eng github github 256K 2020-10-06 07:56:07
e-maxx-eng.github.io - e-maxx-eng github github 604K 2020-10-06 07:56:00
Auxiliary stuff for article sources - e-maxx-eng github github 3.9M 2020-10-06 07:55:37
QR Code and Barcode Detection using zbar library (pyzbar for python) - Taehee Lee - kairess github github 1.1M 2020-10-06 07:45:45
python + openCV for barcode detection - Dalibor Hrg - dhrg github github 948K 2020-10-06 07:45:36
Angle invariant 1D Barcode detection - Simone Albertini - SimoneAlbertini github github 6.7M 2020-10-06 07:45:18
Simple binarization tool - CIS OCR Group - cisocrgroup github github 452K 2020-10-06 07:45:16
XCrypto: a cryptographic ISE for RISC-V - SCARV - scarv (ref) github github 1.9M 2020-09-10 18:04:18
XCrypto: a cryptographic ISE for RISC-V - SCARV - scarv (rtl) github github 312K 2020-09-10 18:04:16
XCrypto: a cryptographic ISE for RISC-V - SCARV - scarv (spec) github github 2.0M 2020-09-10 18:04:12
The latlong package maps from a latitude and longitude to a timezone. - Brad Fitzpatrick - bradfitz github github 5.4M 2020-09-09 20:57:44
stand-alone coarse geocoder - Pelias - pelias github github 8.6M 2020-09-09 20:56:59
SymSpellCompound: compound aware automatic spelling correction - Wolf Garbe - wolfgarbe github github 1.4M 2020-09-09 20:56:36
A repository for analysing NIST post quantum cryptography round 2 candidates on the RISC-V ISA. - SCARV - scarv github github 764K 2020-09-09 20:51:13
SCARV: a side-channel hardened RISC-V platform - SCARV - scarv github github 564K 2020-09-09 20:50:21
Code for paper "Base64 encoding and decoding at almost the speed of a memory copy" - Wojciech Muła - WojciechMula github github 8.3M 2020-07-24 22:43:01
Base64 coding and decoding with SIMD instructions (SSE/AVX2/AVX512F/AVX512BW/AVX512VBMI/ARM Neon) - Wojciech Muła - WojciechMula github github 852K 2020-07-24 22:42:02
Detect text with stroke width transform. - Andrew Perrault - aperrault github github 11.9M 2020-07-06 19:19:19
colorcorrect - Shunsuke Aihara - shunsukeaihara github github 1.2M 2020-07-06 19:19:01
A memory-based, optional-persistence naïve bayesian text classifier. - Ryan Vennell - hickeroar github github 1.2M 2020-07-06 19:05:34
Watch Fanfic organized into one file and with a navbar and chapter selection - BritoO - BritoO97 github github 3.8M 2020-07-06 18:39:41
core-v-trace - OpenHW Group - openhwgroup github github 276K 2020-07-06 17:46:53
RISC-V Random Instruction Stream Generator - OpenHW Group - openhwgroup github github 588K 2020-07-06 17:46:47
CORE-V Family of RISC-V Cores - OpenHW Group - openhwgroup github github 404K 2020-07-06 17:46:41
Raw content, bitstreams and HEIF files for conformance testing - Nokia Technologies - nokiatech github github 48.7M 2020-07-06 17:32:19
Presentations, tutorials and data for the OCR workshop at LMU - CIS OCR Group - cisocrgroup github github 172.9M 2020-07-06 17:28:45
The CIS OCR PostCorrectionTool - CIS OCR Group - cisocrgroup github github 88.6M 2020-07-06 17:27:25
The user frontend to control the knitting machine - Knitty Project - knitty github github 360K 2020-06-29 23:04:45
The connection between the knitting machine and a computer - Knitty Project - knitty github github 900K 2020-06-29 23:04:34
Firmware: Reverse engineering of a Passap E6000 - Irene - IrenePassap github github 5.6M 2020-06-29 23:04:26
ATTEND SQLite3 Decimal is an extension for SQLite3 implementing (exact) decimal arithmetic. fossil fossil 3.9M 2020-06-29 23:04:18
A Variable-Length String Hashing Library in C++ - Daniel Lemire - lemire github github 812K 2020-06-19 05:48:31
Fast implementations of the scancount algorithm: C++ header-only library - Daniel Lemire - lemire github github 872K 2020-06-19 05:48:25
C library to remove white space from strings as fast as possible - Daniel Lemire - lemire github github 3.0M 2020-06-19 05:47:54
for benchmarking other implementations, just the datasets from https://github.com/RoaringBitmap/RoaringBitmap/tree/master/real-roaring-dataset/src/main/resources/real-roaring-dataset - Roaring bitmaps: A better compressed bitset - RoaringBitmap github github 45.9M 2020-06-19 05:47:31
C++ library to pack and unpack vectors of integers having a small range of values using a technique called Frame of Reference - Daniel Lemire - lemire github github 432K 2020-06-19 05:47:21
High-performance dictionary coding - Daniel Lemire - lemire github github 556K 2020-06-19 05:47:09
A fast implementation for varbyte 32bit/64bit integer compression - Christoph Rupp - cruppstahl github github 2.1M 2020-06-19 05:46:52
Fast decoder for VByte-compressed integers - Daniel Lemire - lemire github github 868K 2020-06-19 05:46:38
C library to pack and unpack short arrays of integers as fast as possible - Daniel Lemire - lemire github github 452K 2020-06-19 05:45:34
Fast integer compression in C using the StreamVByte codec - Daniel Lemire - lemire github github 2.4M 2020-06-19 05:44:05
An interpolating spline based on spirals - Raph Levien - raphlinus github github 392K 2020-06-17 02:47:37
A repository for research code, papers, interactive visualizers, etc., for spline research - Raph Levien - raphlinus github github 3.0M 2020-06-17 02:47:24
An implementation of Radial Basis Function multidimensional interpolation - linebender github github 1.0M 2020-06-17 02:41:23
Wiki and documentation for 2D graphics projects - linebender github github 760K 2020-06-17 02:41:15
An example of using ABC as a Library using CMake - berkeley-abc github github 216K 2020-06-15 07:35:04
Niklas Een's ABC/ZZ framework - berkeley-abc github github 14.4M 2020-06-15 07:34:53
Various larger test cases for yosys - Yosys Headquarters - YosysHQ github github 3.4M 2020-06-15 07:32:04
A collection of big designs to run post-synthesis simulations with yosys - Yosys Headquarters - YosysHQ github github 928K 2020-06-15 07:31:47
A Verilog Synthesis Regression Test - Yosys Headquarters - YosysHQ github github 768K 2020-06-15 07:31:40
Benchmarks for nextpnr - Yosys Headquarters - YosysHQ github github 4.0M 2020-06-15 07:31:36
GUI for SymbiYosys - Yosys Headquarters - YosysHQ github github 3.6M 2020-06-15 07:31:32
ChipDB builder for NextPnR project - Yosys Headquarters - YosysHQ github github 528K 2020-06-15 07:31:30
Yosys Plugins - Yosys Headquarters - YosysHQ github github 1.7M 2020-06-15 07:31:19
ATTEND Benchmarks for Yosys development - Yosys Headquarters - YosysHQ github github 14.6M 2020-06-15 07:29:25
Industry standard I/O for nMigen - M-Labs - m-labs github github 336K 2020-06-15 07:13:27
System on Chip toolkit for nMigen - M-Labs - m-labs github github 816K 2020-06-15 07:13:21
ATTEND Native FPGA toolchain for Lattice iCE40 and Cypress FX2 (sdcc, Yosys, nextpnr) - Glasgow Embedded - GlasgowEmbedded github github 148K 2020-06-15 07:06:41
:seedling: Tool GTKWave for open FPGAs - FPGAwars - FPGAwars github github 212K 2020-06-15 07:04:47
:snowflake: Icestudio Logic Collection - FPGAwars - FPGAwars github github 732K 2020-06-15 07:04:45
:snowflake: Icestudio collections manager - FPGAwars - FPGAwars github github 224K 2020-06-15 07:04:43
:seedling: Drivers tools for open FPGAs - FPGAwars - FPGAwars github github 5.3M 2020-06-15 07:04:38
:snowflake: List of collections for Icestudio - FPGAwars - FPGAwars github github 184K 2020-06-15 07:04:36
:snowflake: Icestudio Generic Collection - FPGAwars - FPGAwars github github 1.0M 2020-06-15 07:04:32
:seedling: Tool scons for open FPGAs - FPGAwars - FPGAwars github github 276K 2020-06-15 07:04:29
:snowflake: http://icestudio.readthedocs.io - FPGAwars - FPGAwars github github 10.5M 2020-06-15 07:04:21
:snowflake: Icestudio Default Collection - FPGAwars - FPGAwars github github 664K 2020-06-15 07:04:15
:snowflake: Icestudio examples - Community contributions - FPGAwars - FPGAwars github github 3.9M 2020-06-15 07:03:53
Icestudio Blocks and examples for the icebreaker OpenFPGA board - FPGAwars - FPGAwars github github 500K 2020-06-15 07:03:16
Testbenches for testing the blocks on the Jedi Collection - FPGAwars - FPGAwars github github 340K 2020-06-15 07:03:13
Icestudio blocks and examples for audio synthesis - FPGAwars - FPGAwars github github 1.1M 2020-06-15 07:03:11
Collection of hardware elements and examples for the LOVE-FPGA project (Linking Of Virtual Electronics to FPGAs) - FPGAwars - FPGAwars github github 1.5M 2020-06-15 07:02:21
:seedling: Experimental open FPGA IDE using Atom and Apio - FPGAwars - FPGAwars github github 3.9M 2020-06-15 07:01:31
:star2: IceZUM Alhambra: an Arduino-like Open FPGA electronic board - FPGAwars - FPGAwars github github 180.8M 2020-06-15 06:58:25
:snowflake: :star2: Workshops with Icestudio and the IceZUM Alhambra board - FPGAwars - FPGAwars github github 180.8M 2020-06-15 06:56:49
A simple script to build open-source FPGA tools. - Open Tool Forge - open-tool-forge github github 640K 2020-06-15 06:55:36
High speed FPGA-based communication using IEEE1355 - markbroadmeadowqut github github 29.2M 2020-06-15 06:55:22
SpaceWire - krististefa1 github github 1.2M 2020-06-15 06:55:20
SpaceWire packet format diagrams using nwdiag(simple network-diagram image generators) - - ncesnagoya github github 420K 2020-06-15 06:46:25
16-bit microprocessor: final project for CMSC 240 - Dan Hopkins - dan-hopkins github github 308K 2020-06-11 06:43:25
A simple, lightweight, public-domain secure random number generator - Nick Mathewson - nmathewson github github 860K 2020-06-11 06:39:50
A shared library that implements scrypt() functionality - a replacement for bcrypt() - Joshua Small - technion github github 2.5M 2020-06-11 06:39:02
A DFA based UTF-8 decoder - Andrew Moon - floodyberry github github 356K 2020-06-11 06:38:57
Optimized, portable implementations of BLAKE2s - Andrew Moon - floodyberry github github 464K 2020-06-11 06:38:54
Optimized implementations of Poly1305, a fast message-authentication-code - Andrew Moon - floodyberry github github 628K 2020-06-11 06:38:47
Optimized, portable implementations of BLAKE2b - Andrew Moon - floodyberry github github 724K 2020-06-11 06:38:39
Mirror of SUPERCOP, the \"System for Unified Performance Evaluation Related to Cryptographic Operations and Primitives\" - Andrew Moon - floodyberry github github 45.0M 2020-06-11 06:37:31
Optimized block functions for the ChaCha stream cipher - Andrew Moon - floodyberry github github 1.4M 2020-06-11 06:37:11
SipHash: a fast short-input PRF - Andrew Moon - floodyberry github github 876K 2020-06-11 06:36:59
A fast secure userspace pseudorandom number generator - Nick Mathewson - nmathewson github github 4.1M 2020-06-11 06:34:35
Next-generation cryptography library for the Linux kernel. git git 1.4G 2020-06-09 06:29:48
Tools for integrating WireGuard into Android ROM builds and kernel trees. git git 188K 2020-06-09 00:36:32
Proof of WireGuard protocol using Tamarin git git 192K 2020-06-09 00:35:05
ATTEND HACL, a formally verified cryptographic library written in F - Project Everest - project-everest git git 412.4M 2020-06-09 00:04:59
Standards compliant, fast, secure markdown processing library in C - Hoedown - hoedown git git 1.2M 2020-06-09 00:04:42
Experimental Serial Transmitter - Samuel A. Falvo II - sam-falvo github github 624K 2020-06-08 23:52:36
Lightweight cryptographic hash functions (reference code) - Jean-Philippe Aumasson - veorq github github 464K 2020-06-08 23:49:15
SHA-3 finalist (reference code) - Jean-Philippe Aumasson - veorq github github 516K 2020-06-08 23:46:32
Pandoc filter to convert math to SVG using MathJax-node's tex2svg - John MacFarlane - jgm github github 624K 2020-06-08 23:17:58
Steps towards a PDF renderer for cmark using libharu - John MacFarlane - jgm github github 312K 2020-06-08 23:09:22
A minimal fuzz test suite for cmark created by american fuzzy lop and afl-cmin - John MacFarlane - jgm github github 2.8M 2020-06-08 23:09:18
Slides for my presentation on pandoc at BayHac2014 - John MacFarlane - jgm github github 860K 2020-06-08 23:09:16
A curated collection of Markdown resources: apps, dialects, parsers, people, … - Wouter Soudan - rhythmus github github 1.0M 2020-06-08 23:08:50
Filter and library for using pandoc with highlighting-kate - John MacFarlane - jgm github github 292K 2020-06-08 23:08:47
A prettyprinting library designed for laying out plain text documents - John MacFarlane - jgm github github 392K 2020-06-08 23:08:44
Haskell library for emojis - John MacFarlane - jgm github github 628K 2020-06-08 23:08:42
Lua library to convert HTML5 to commonmark - John MacFarlane - jgm github github 228K 2020-06-08 22:48:44
Native Haskell library for working with zip archives - John MacFarlane - jgm github github 2.4M 2020-06-08 22:46:07
Lua binding to libcmark commonmark parser - John MacFarlane - jgm github github 256K 2020-06-08 22:43:18
CommonMark spec web pages - CommonMark - commonmark github github 4.5M 2020-06-08 22:33:31
spacewire svn svn 6.8M 2020-06-08 22:32:15
64-bit MISC Architecture CPU - Samuel A. Falvo II - sam-falvo github github 356K 2020-05-20 02:39:56
The Kestrel is a family of home-made computers, built as much as possible on open-source technology, and supporting as much as possible the open-source philosophy. - Samuel A. Falvo II - sam-falvo github github 22.0M 2020-05-20 02:39:43
An adaptation of IEEE-1355 DS-SE-02 serial I/O for use with the Kestrel-3 for standardized I/O channels. - Samuel A. Falvo II - sam-falvo github github 304K 2020-05-20 02:39:41
J-core SOC for ice40 FPGA - J-core Open Processor - j-core github github 596K 2020-05-20 02:39:36
BootROM for JCore J2 SoCs - J-core Open Processor - j-core github github 372K 2020-05-20 02:39:19
Baseband Receiver IP for GPS like DSSS signals - J-core Open Processor - j-core github github 844K 2020-05-20 02:39:08
KEM-based Hybrid Forward Secrecy for Noise - noiseprotocol github github 576K 2020-05-16 01:46:01
spectemplate - noiseprotocol github github 956K 2020-05-16 01:45:59
NoiseLingoSocket - noiseprotocol github github 2.3M 2020-05-16 01:45:57
Specification of the Noise Socket protocol@gh - noisesocket github github 3.8M 2020-05-16 01:45:46
Noise Specification - noiseprotocol github github 21.0M 2020-05-16 01:44:46
Static-Static Pattern Modifiers for Noise - noiseprotocol github github 688K 2020-05-16 01:44:44
spectools - noiseprotocol github github 4.0M 2020-05-16 01:44:41
Signatures for Noise - noiseprotocol github github 1.2M 2020-05-16 01:44:39
Noise Stateful Hash Objects - noiseprotocol github github 712K 2020-05-16 01:44:36
Noiseprotocol.org website - noiseprotocol github github 8.3M 2020-05-16 01:44:25
Wiki for Noise development - noiseprotocol github github 144K 2020-05-16 01:44:24
AVX implementation of the Skinny block cipher - kste github github 992K 2020-05-16 01:44:19
SKINNY tweakable block cipher - rweather github github 1.7M 2020-05-16 01:44:12
Source code for front pages of diybookscanner.org. - Tenrec Builders LLC - Tenrec-Builders github github 12.5M 2020-05-16 00:21:39
A set of tools for rotating, cropping, and binding the images from a scanned book into a PDF. - Tenrec Builders LLC - Tenrec-Builders github github 75.6M 2020-05-16 00:20:16
Marker Crop ported to JS with web UI - Tenrec Builders LLC - tenrec-builders github github 13.2M 2020-05-16 00:20:07
Fixture modules for various CPU to connect with DE0/DE1/DE2 Terassic boards - 1801BM1 github github 1.9M 2020-05-02 06:57:53
i8080 precise replica in Verilog, based on reverse engineering of real die - 1801BM1 github github 16.5M 2020-05-02 06:55:48
xerox-parc-uplib-mirror personal digital library git git 9.2M 2020-04-23 21:50:17
Experimental Move Machines (Transfer Triggered Architectures) - Adly Abdullah - slebetman github github 2.0M 2020-04-20 21:07:00
ditaa - Diagrams Through Ascii Art git git 120K 2020-04-17 18:23:14
Source codes for benchmarks of multiple fec algorithms - Michal Virgovic git git 14.7M 2020-04-16 18:40:04
An Open-Source RaptorQ Implementation in C++ - Matt Olan - olanmatt github github 1.3M 2020-04-16 18:37:03
ATTEND OpenRQ - OpenRQ Team - openrq-team github github 9.2M 2020-04-16 18:36:27
Example encoding and decoding using SD erasure codes. This is code to accompany the ACM Transactions on Storage paper entitled "Sector-Disk (SD) Erasure Codes for Mixed Failure Modes in RAID Systems" by James S. Plank and Mario Blaum. This paper is set to appear in 2013. The precursor paper is "SD Codes: Erasure Codes Designed for How Storage Systems Really Fail", by James S. Plank, Mario Blaum and James L. Hafner, which appeared in Usenix FAST 2013: http://web.eecs.utk.edu/~plank/plank/papers/FAST-2013-SD.html git git 460K 2020-04-16 18:36:25
Read-only mirror of http://jerasure.org/jerasure/gf-complete - Ceph - ceph github github 11.7M 2020-04-16 18:34:52
RISC-V in Practical Computer Architecture Education - Stefan Wallentowitz - wallento github github 184K 2020-03-20 00:00:37
Decode embedded EXIF meta data from image files. - Perkeep (née Camlistore) - perkeep github github 1.3M 2020-03-02 06:40:38
ATTEND Homepage of Free Lossless Image Format (FLIF) - FLIF - FLIF-hub github github 85.0M 2020-02-28 04:33:37
ATTEND Documentation related to FLIF: a paper, a spec, design rationale, etc. - FLIF - FLIF-hub github github 16.9M 2020-02-28 04:33:22
ATTEND simple lossless crusher tries to reduce FLIFs in size by recompressing them with different parameters - FLIF - FLIF-hub github github 700K 2020-02-28 04:33:14
ATTEND Packetbl is a user space RBL client that works with netfilter fossil fossil 484K 2020-01-31 05:51:06
Easy optimization framework with explicitly vectorized automatic differentiation - Christopher Parker - csp256 github github 372K 2020-01-31 05:49:20
Custom version of KFAST for integration into OpenMVG - Kareem Omar - komrad36 github github 1.5M 2020-01-31 05:49:14
Fastest CUDA RGB to grayscale: 5-30x faster than OpenCV. For image processing/computer vision. - Kareem Omar - komrad36 github github 1.2M 2020-01-31 05:49:10
Fastest CPU (AVX2) Bilinear and Nearest-Neighbor Interpolation: 25-100% faster than OpenCV. For computer vision / image processing. - Kareem Omar - komrad36 github github 384K 2020-01-31 05:49:05
Extremely fast SSE gradient (angle of rotation) computation of grayscale features in an image, for image processing and computer vision. - Kareem Omar - komrad36 github github 248K 2020-01-31 05:49:03
Implementation of FAST feature detector for computer vision (Rosten 2006) using AVX2 to outperform canonical implementation by up to 600%. - Kareem Omar - komrad36 github github 1.6M 2020-01-31 05:48:28
Insanely fast CUDA LATCH: fully scale- and rotation-invariant 512-bit binary descriptor for computer vision - Kareem Omar - komrad36 github github 1.4M 2020-01-31 05:48:21
Fastest CPU implementation of the LATCH 512-bit binary feature descriptor; fully scale- and rotation-invariant - Kareem Omar - komrad36 github github 1.9M 2020-01-31 05:48:06
GPU implementation of LATCH descriptor & matcher. - Christopher Parker - csp256 github github 81.5M 2020-01-31 05:47:17
My own 3d geometry library - Srivathsan Murali - srivathsanmurali github github 2.3M 2020-01-31 05:47:12
A modernization of DenseSIFT - Matthew Daiter - mdaiter github github 404K 2020-01-31 05:47:10
openMVG with a LATCH descriptor, an ORB descriptor, DEEP descriptors from the cvpr15compare repo, PNNet/Torch loader and a GPU-based L2 matcher integrated - Matthew Daiter - mdaiter github github 277.6M 2020-01-31 05:44:49
RISC-V random instruction generator based on the Sail model - REMS - rems-project github github 2.3M 2019-12-10 19:46:46
Formal semantics of BSV (Bluespec SystemVerilog), given as a Haskell Program and accompanying document - Rishiyur S. Nikhil - rsnikhil github github 5.9M 2019-12-10 19:44:43
Bluespec BSV HLHDL tutorial - Rishiyur S. Nikhil - rsnikhil github github 15.0M 2019-12-10 19:44:26
Implementation of RISC-V RV32IM. Simple in-order 3-stage pipeline. Low resources (e.g., FPGA softcore). - Rishiyur S. Nikhil - rsnikhil github github 5.6M 2019-12-10 19:44:11
Utilities and images to make libreflip software deployment easier - Libreflip - libreflip github github 388K 2019-12-04 05:15:56
CAD-Data of Libreflip - Libreflip - libreflip github github 16.5M 2019-12-04 05:15:47
Bookscanner controller firmware - Libreflip - libreflip github github 3.6M 2019-12-04 05:15:41
An eBook version of Team 8 by Matthew Schocke. - Ian Moriarty - IntermittentlyRupert github github 50.7M 2019-11-18 02:02:15
A fast preprocessor for C and C++ - Facebook Archive - facebookarchive github github 2.3M 2019-11-18 02:00:41
Mirror of git://git.code.sf.net/p/cmph/git. - Trent Nelson - tpn github github 5.3M 2019-10-16 08:42:17
C Minimal Perfect Hashing Library - zvelo - zvelo github github 1.6M 2019-10-16 08:41:56
Perfect Hash Functions - Vicent Martí - vmg github github 568K 2019-10-16 08:41:53
Marpa: EBNF parser - jddurand github github 264K 2019-10-15 02:26:18
Marpa: M4 implementation - jddurand github github 728K 2019-10-15 02:26:16
Marpa: Translate C source to AST - jddurand github github 3.6M 2019-10-15 02:26:07
SLIF: URI en/decoder MarpaX::ESLIF - jddurand github github 408K 2019-10-15 02:26:04
Thread-safe parallel-capable Earley parser - jddurand github github 224K 2019-10-15 02:26:02
bradley-adaptive-thresholding - Le Van Quyen - Chickyky github github 1.9M 2019-10-07 22:58:02
RISC-V RV64IS-compatible processor for the Kestrel-3 - Kestrel Computer Project - KestrelComputer github github 912K 2019-04-30 21:41:46
Third-Generation General Purpose I/O and Interrupt Adapter - Kestrel Computer Project - KestrelComputer github github 248K 2019-04-30 21:41:43
This repo contains the LeanPub manuscript for the Kestrel-3's User Guide. - Kestrel Computer Project - KestrelComputer github github 2.4M 2019-04-30 21:41:37
Configurable Graphics Interface Adapter - Kestrel Computer Project - KestrelComputer github github 228K 2019-04-30 21:41:34
Backbone provides a backplane-based research and development platform for developing individual pieces of the Kestrel-3 and perhaps even other home-made, open-source computing devices. - Kestrel Computer Project - KestrelComputer github github 280K 2019-04-30 21:41:32
An archive of Kestrel-2 build artifacts. Not currently maintained. - Kestrel Computer Project - KestrelComputer github github 4.1M 2019-04-30 21:41:28
A microcontroller that natively executes a simple LISP dialect - Jeff Bush - jbush001 github github 916K 2019-04-30 21:37:15
Parallel Array of Simple Cores. Multicore processor. - Jeff Bush - jbush001 github github 1.3M 2019-04-30 21:36:45
Experiments with fixed function renderers and Chisel HDL - Jeff Bush - jbush001 github github 536K 2019-04-30 21:33:23
ATTEND SIMD optimizations related to 2D computer graphics - Petr Kobalicek - kobalicek github github 692K 2019-04-30 21:19:46
Halide documentation site - Halide - halide github github 172K 2019-04-30 20:31:10
Starting point for building a self-contained collection of Halide app(s) - Halide - halide github github 564K 2019-04-30 20:29:13
A simple utility library to dump call information from a Halide pipeline as JSON. Currently used for autotuning. - Halide - halide github github 720K 2019-04-30 20:29:09
Example code used in siggraph 2015 Halide course - Halide - halide github github 5.8M 2019-04-30 20:29:00
Example code used in the CVPR 2015 tutorial - Halide - halide github github 7.0M 2019-04-30 20:28:44
visual_debugger - Halide - halide github github 7.5M 2019-04-30 20:26:12
Spacewire codec with NIOS II for Terasic DE0 Altera@gh - ti-rodrigues github github 1008K 2019-03-06 05:13:26
Verilog SpaceWire with testbench - elf2flash github github 456K 2019-03-06 05:13:24
-ATTEND 32bit SpaceWire core with AHB/APB/WB interfaces - Alexander - whtfpga github github 460K 2019-03-06 05:13:23
Spacewire Codec SpwTCR - ti-rodrigues github github 356K 2019-03-06 05:13:20
SpaceWire - FreeCores - freecores github github 688K 2019-03-06 05:13:13
ATTEND UserFPGA IP Core of SpaceWire 8ch ADCBox - Takayuki Yuasa - yuasatakayuki github github 7.6M 2019-03-06 05:13:07
ATTEND GUI interface to SpaceWire and RMAP - Takayuki Yuasa - yuasatakayuki github github 6.5M 2019-03-06 05:12:59
ATTEND SpaceWireDocuments - Takayuki Yuasa - yuasatakayuki github github 6.2M 2019-03-06 05:12:52
Open-source version of SpaceWire-to-GigabitEther using ZestET1 - Takayuki Yuasa - yuasatakayuki github github 11.8M 2019-03-06 05:12:41
OSS SpaceWire Router 6Port IP - shimafujigit github github 1.2M 2019-03-06 05:12:33
OSS SpaceWire RMAP IP - shimafujigit github github 1.0M 2019-03-06 05:12:26
OSS SpaceWire CODEC IP - shimafujigit github github 904K 2019-03-06 05:11:57
grlib - verilog/vhdl cores - Philippe Faes - philippefaes github github 22.0M 2019-03-01 21:20:37
ATTEND VHDL FPU project - Philippe Faes - philippefaes github github 992K 2019-03-01 21:20:35
A parser tool for Racket with an expressive grammar notation - Matthew Might - mattmight github github 2.7M 2019-03-01 21:20:28
A collection of toy languages for experimenting with concepts in programming languages - Matthew Might - mattmight github github 828K 2019-03-01 21:20:26
A small web app to demonstrate the seam-carving algorithm in JavaScript. - Matthew Might - mattmight github github 768K 2019-03-01 21:20:19
CuCV - CUDA empowered light-weight CV library - Carl Yuheng Ren - carlren github github 6.1M 2019-03-01 21:20:12
GPU-based mean field inference - Carl Yuheng Ren - carlren github github 18.1M 2019-03-01 21:20:00
A set of computer vision tools - Carl Yuheng Ren - carlren github github 44.8M 2019-03-01 21:19:33
A small DFA for under 16 states - geofflangdale github github 476K 2019-03-01 21:15:15
Shuffle-based predicate matcher and all-round branch free swiss army chainsaw - geofflangdale github github 372K 2019-03-01 21:15:13
A Simple FPGA Core for Creating VGA/DVI/HDMI/OpenLDI Signals - Clifford Wolf - cliffordwolf github github 1.5M 2019-02-26 18:55:28
A single-wire bi-directional chip-to-chip interface for FPGAs - Clifford Wolf - cliffordwolf github github 960K 2019-02-26 18:55:19
Reference Hardware Implementations of Bit Extract/Deposit Instructions - Clifford Wolf - cliffordwolf github github 528K 2019-02-26 18:52:31
G'MIC is a full-featured open-source framework for image processing, providing several different user interfaces to convert/manipulate/filter/visualize generic image datasets, ranging from 1d scalar signals to 3d+t sequences of multi-spectral volumetric images, including 2d color images.@gh - aferrero2707 github github 4.0M 2019-02-26 18:43:23
Apply all G'MIC filters to an image and view results in HTML - Jean-Philippe Fleury - jpfleury github github 1.5M 2019-02-26 18:43:17
Presentation on the J1 CPU - James Bowman - jamesbowman github github 3.8M 2019-02-26 18:42:53
A small RISC-V RV32I core written in VHDL, intended as testbed for my personal VHDL learning - maikmerten github github 1.3M 2019-02-04 15:41:39
A public domain H.261 en- and decoder developed by the Portable Video Research Group at Stanford, patched to build on modern systems - maikmerten github github 892K 2019-02-04 15:41:29
A randomized RV32I test generator - maikmerten github github 176K 2019-02-04 15:41:27
A Java application to load and execute programs over a serial connection for the Tom Thumb RISC-V system - maikmerten github github 828K 2019-02-04 15:41:25
A public domain MPEG-1 Part 2 en- and decoder developed by the Portable Video Research Group at Stanford, patched to build on modern systems@gh - maikmerten github github 540K 2019-02-04 15:41:20
A Python implementation of the Stochastic Outlier Selection algorithm - Jeroen Janssens - jeroenjanssens github github 3.3M 2019-01-25 01:20:14
My Ph.D. thesis on Outlier Selection and One-Class Classification - Jeroen Janssens - jeroenjanssens github github 46.0M 2019-01-25 01:09:14
Go implementation of Graph Theory algorithms - Iñigo López de Heredia - ichinaski github github 204K 2019-01-25 01:05:16
A new kind of terminal - boats - withoutboats github github 9.5M 2019-01-25 01:03:39
Automatically exported from code.google.com/p/imageresampler - Rich Geldreich - richgel999 github github 808K 2019-01-25 01:00:54
stereo rectification and stereo matching for perspective camera and fisheye camera, based on opencv - Baisheng - jiuerbujie github github 6.5M 2019-01-23 01:19:19
Collection of background segmentation algorithms - Vladislav Samsonov - VladX github github 708K 2019-01-23 01:08:27
Segmentation using superpixels. Uses SLIC to preprocess each image, separate foreground from background in an image using a supervised model, handle unsupervised segmentation for when without initial training data - Benjamin Shih - benshih github github 572K 2019-01-23 00:21:21
Implementation of mean shift algorithm to segment a human from an image, provided an additional image of just the background - alec - alec-ng github github 30.8M 2019-01-23 00:20:58
Implementation of the paper Fully Convolutional Networks for Semantic Segmentation, used to segment a person from a background in an RGB image - alec - alec-ng github github 10.2M 2019-01-23 00:20:47

Contact information

Mail to Andreas Kupries